GFSSE_sfc_temp_033.txt.gz
Temp
71 74 82 82 82 82 82 82 82 82 82 81 82 82 82 82 82 81 81 81 81 82 82 82 82 82 82 82 82 82 82 82 81 81 80 81 81 82 81 81 80 79 81
74 76 82 82 82 82 82 82 82 81 81 81 81 81 81 81 81 81 81 81 81 81 81 81 82 82 82 82 82 81 81 81 81 80 79 78 79 81 81 81 80 80 81
75 78 80 82 82 82 82 82 81 81 81 81 80 80 80 81 81 80 81 82 81 81 81 81 81 81 81 81 81 81 81 81 80 80 79 75 76 81 81 80 80 81 80
76 78 78 82 82 82 82 81 81 81 80 80 80 80 80 80 81 80 80 81 81 81 80 80 80 81 81 81 81 81 81 81 80 79 75 76 79 81 81 80 80 80 80
76 77 78 82 81 82 82 81 81 80 80 80 79 80 80 80 80 79 80 82 82 81 79 79 79 80 80 80 80 81 81 81 79 76 73 72 73 80 80 80 80 80 79
74 75 78 81 81 82 82 81 80 80 80 79 79 80 80 80 79 78 79 80 80 80 80 79 79 79 79 79 81 81 80 79 76 72 71 75 73 80 80 79 79 79 79
72 75 78 81 81 81 81 81 80 80 80 79 79 79 79 79 79 78 77 78 78 79 80 79 79 79 79 79 80 80 79 78 72 70 70 71 73 79 80 79 79 79 79
74 76 78 81 81 81 81 81 80 80 80 79 79 79 78 78 78 77 77 76 77 77 77 77 79 81 79 78 79 79 78 77 73 69 69 70 77 79 79 78 78 78 78
76 76 76 78 79 80 81 80 80 79 79 79 79 78 78 78 77 77 76 76 76 76 76 76 78 78 78 77 78 78 78 75 68 68 72 70 78 78 79 78 78 78 78
73 75 74 75 77 76 76 80 80 80 79 79 78 78 77 77 76 76 76 75 75 75 75 75 75 76 76 76 76 76 75 73 67 68 67 70 77 78 78 78 77 77 78
73 72 73 74 74 73 73 76 79 79 79 78 77 77 75 65 66 67 71 74 75 75 75 75 75 75 75 74 75 76 71 65 65 65 66 76 78 78 78 77 77 77 77
69 71 74 73 72 71 76 73 72 73 71 70 69 67 64 62 62 67 69 74 75 74 74 75 75 74 71 62 62 68 63 63 63 63 65 75 77 78 78 77 76 76 76
70 71 73 72 72 71 73 72 71 68 68 67 66 64 63 62 60 61 59 59 58 67 60 63 60 59 60 59 59 59 61 60 60 61 68 74 75 76 75 74 74 74 74
69 69 72 72 71 71 73 71 70 69 68 67 66 64 61 59 58 58 57 56 55 55 55 55 54 56 58 59 56 56 57 57 57 59 63 72 73 74 73 72 73 73 73
64 65 69 71 70 69 70 70 70 69 69 68 65 65 63 60 59 57 56 55 54 53 54 54 53 55 55 56 55 55 54 54 55 56 56 71 71 72 72 72 72 72 72
63 65 68 69 71 70 69 68 67 67 67 66 65 64 63 61 59 58 56 55 54 53 54 53 54 53 53 53 55 55 53 52 53 54 55 58 70 70 70 70 71 71 71
62 64 67 70 67 68 68 67 67 66 67 64 63 63 62 61 59 59 57 55 55 54 55 53 53 52 52 54 52 53 53 52 53 53 54 55 60 69 69 69 69 69 69
60 61 64 68 67 67 64 66 67 67 65 64 63 62 62 62 60 58 58 58 56 54 53 53 52 51 51 50 50 52 51 51 52 52 53 53 54 57 65 68 68 68 68
58 58 62 62 62 63 62 63 63 64 63 63 63 61 64 64 61 60 59 59 55 54 52 53 51 52 50 50 51 51 50 50 51 56 51 53 52 54 53 64 68 68 68
57 57 58 60 59 61 62 61 62 61 62 61 61 64 65 63 63 62 57 57 56 53 52 51 52 49 50 51 57 55 49 49 49 49 50 54 51 53 52 53 52 56 68
57 55 56 59 57 58 60 57 57 56 58 62 61 63 64 62 63 59 59 58 55 56 57 54 51 51 48 48 49 48 48 49 47 48 48 49 50 52 50 51 51 51 53
53 54 54 56 57 57 55 54 54 54 56 60 63 65 65 64 61 59 59 58 59 55 54 52 52 48 49 47 48 44 46 48 46 48 46 49 49 50 51 52 51 51 51
53 52 55 55 56 56 55 54 54 55 54 54 56 60 62 64 63 62 61 60 58 60 59 56 55 52 49 46 48 49 41 43 42 44 45 46 48 47 48 50 51 52 51
53 54 54 55 55 58 54 52 51 50 50 51 51 53 55 58 59 62 61 60 61 57 59 59 59 58 51 49 45 49 44 45 44 45 45 45 46 48 47 47 50 51 51
54 53 53 54 55 55 53 51 50 49 49 50 51 52 53 54 56 57 57 57 60 57 59 61 59 56 58 50 48 43 42 42 41 42 43 44 44 45 46 47 48 48 50
53 53 53 53 54 53 53 52 50 49 49 49 49 49 50 51 53 54 56 54 56 57 57 58 59 57 58 58 52 46 45 44 42 42 39 40 42 45 44 45 46 47 48

GFSSE_sfc_temp_036.txt.gz
Temp
70 73 81 82 82 82 82 82 82 82 82 82 82 82 82 82 82 81 81 81 81 81 82 82 82 82 82 82 82 82 82 82 81 81 81 81 81 82 81 81 80 79 81
72 74 82 82 82 82 83 82 83 82 81 82 81 82 82 82 82 81 81 81 81 81 81 82 82 82 82 82 82 82 81 81 81 80 79 79 79 81 81 80 80 80 81
74 76 80 82 82 82 83 82 82 81 81 81 81 81 80 81 80 81 82 82 81 81 81 81 81 81 81 81 81 81 81 81 80 79 78 75 77 81 81 80 80 80 80
75 76 77 82 82 82 82 82 82 81 80 80 80 80 80 80 81 81 80 81 81 80 80 80 80 81 81 81 81 81 81 80 80 78 75 76 79 81 80 80 80 80 80
75 76 77 82 82 82 82 82 81 80 80 80 79 79 79 80 80 79 80 82 83 80 79 79 79 80 80 80 81 81 81 80 78 76 73 73 74 79 80 80 80 80 79
73 74 78 82 81 82 82 81 80 80 80 79 79 79 79 80 79 78 79 81 81 80 80 80 78 79 79 80 81 80 81 78 75 72 72 75 74 79 80 79 79 79 79
72 73 77 81 81 82 82 81 80 80 79 79 79 79 79 79 78 77 77 78 78 79 79 79 79 79 79 79 80 80 79 77 71 70 71 72 74 79 79 79 79 79 78
72 74 76 81 81 81 82 81 80 80 79 79 79 78 78 78 78 77 76 76 77 77 77 77 79 79 78 78 79 79 78 76 72 69 70 70 77 79 79 79 78 78 78
73 73 74 76 79 80 81 81 80 79 79 79 79 78 78 77 77 76 76 76 76 76 76 76 78 79 78 77 78 78 77 74 68 68 71 70 78 79 79 78 78 78 78
71 72 72 73 75 75 76 80 80 79 79 79 78 78 77 77 76 76 75 75 75 75 75 75 76 76 76 76 76 76 74 73 67 67 68 71 78 79 78 78 78 78 78
71 70 71 72 73 73 73 76 79 79 79 78 77 77 75 65 65 66 72 74 75 75 75 75 75 75 74 72 75 76 71 65 66 65 66 76 78 78 78 77 77 77 77
67 71 71 72 73 71 75 72 72 72 71 70 69 68 64 63 62 66 69 74 74 74 74 74 75 73 68 61 63 68 66 64 64 64 66 75 77 78 77 77 76 76 76
64 69 72 75 75 72 72 70 69 68 67 67 67 65 63 63 62 62 59 59 58 65 59 60 59 58 58 58 59 60 61 61 61 62 67 74 75 76 75 75 75 75 75
62 64 67 72 74 72 72 69 69 67 66 65 64 64 61 59 58 58 58 57 56 55 55 54 54 55 56 57 55 57 58 58 58 59 63 72 73 75 74 73 73 73 73
61 63 65 66 70 73 71 68 68 68 67 66 64 63 61 59 57 57 56 55 54 53 53 53 53 54 53 54 55 55 55 55 56 57 57 70 72 72 72 72 72 72 72
59 61 65 66 65 70 69 67 67 68 68 66 63 63 62 60 58 57 56 55 53 53 53 53 53 53 52 52 54 54 53 53 54 55 56 57 70 71 71 71 71 71 72
57 58 62 66 65 66 67 69 68 66 66 64 63 63 62 61 59 59 57 55 54 53 54 52 51 51 51 53 51 52 52 51 53 53 54 55 59 70 70 70 70 70 70
54 55 60 63 62 61 60 64 67 67 66 64 63 62 64 65 63 62 59 60 57 54 53 51 51 50 50 50 50 50 50 50 51 51 52 53 54 57 65 69 69 69 69
54 54 57 57 59 59 59 59 59 60 61 61 60 60 61 61 61 61 60 59 59 58 54 52 51 51 50 49 50 49 48 49 50 54 51 52 52 54 54 63 68 68 69
54 54 54 56 55 57 57 57 58 58 58 59 58 59 61 59 60 57 58 56 57 54 52 51 53 49 50 50 56 54 48 48 48 48 49 53 51 52 52 53 54 57 68
53 52 52 55 54 53 53 52 53 53 54 56 58 61 61 60 59 57 55 55 54 55 57 55 51 51 49 48 49 48 48 48 47 47 48 48 50 51 50 51 51 51 54
52 52 52 53 54 53 52 51 51 50 53 53 55 58 60 63 63 61 59 57 54 53 53 52 54 51 49 49 49 44 47 49 46 47 45 48 47 49 50 51 51 51 51
52 50 53 53 54 53 52 52 52 51 51 51 52 53 54 56 58 59 61 60 57 53 54 52 52 52 56 49 51 51 42 44 42 45 43 45 47 46 48 49 50 51 51
52 52 52 53 53 56 52 51 49 47 47 49 48 50 51 54 54 55 55 55 55 55 52 55 55 55 51 52 49 52 47 46 46 46 45 44 44 47 46 47 49 50 51
52 51 51 51 52 53 51 50 48 47 47 48 48 48 50 51 52 54 53 52 52 52 53 58 54 54 54 56 48 44 47 43 41 44 45 46 44 44 46 47 47 48 49
51 51 50 50 51 52 50 50 48 47 47 46 47 47 48 49 50 52 53 51 51 50 51 53 55 52 56 56 53 49 45 47 43 42 41 42 44 45 44 45 45 46 47

GFSSE_sfc_temp_042.txt.gz
Temp
86 88 82 83 82 83 82 82 83 83 83 82 82 83 82 83 82 82 82 82 81 82 82 83 83 83 83 83 82 81 81 81 81 81 81 81 81 81 81 82 83 85 81
91 90 82 83 83 82 82 82 83 82 82 82 82 82 82 82 82 82 81 82 81 82 82 82 82 83 83 82 82 82 82 81 81 81 80 79 79 81 81 81 81 83 81
90 91 88 82 83 83 84 82 83 81 82 82 82 82 81 81 82 82 82 81 81 81 81 82 82 82 82 82 82 81 81 81 80 80 81 88 86 81 81 80 80 81 81
91 92 91 82 83 84 83 83 81 82 82 81 80 81 80 81 81 82 81 83 81 81 81 81 81 81 81 81 81 81 81 80 80 80 91 92 86 80 81 81 80 80 80
92 92 90 82 83 83 84 83 82 81 80 80 80 79 80 80 81 80 81 83 80 80 80 80 80 81 80 81 81 81 80 79 79 84 88 87 85 82 80 81 80 80 80
92 92 84 82 83 83 83 83 82 80 80 79 79 79 80 80 78 79 81 81 80 80 79 79 79 80 80 80 80 81 79 79 80 88 87 85 86 79 80 79 79 79 79
92 92 90 82 82 82 83 82 82 80 80 79 79 79 79 79 78 77 79 79 79 79 79 78 78 80 80 80 81 80 79 79 88 87 87 87 85 80 79 79 79 79 79
91 91 91 83 82 82 82 82 82 80 80 79 79 79 79 79 78 77 77 77 77 78 78 77 77 79 80 79 80 79 78 79 87 87 86 87 79 79 79 79 79 79 79
91 90 92 92 86 80 81 82 82 80 80 79 79 79 78 78 77 77 76 76 76 76 76 76 77 77 77 78 79 78 76 76 88 89 89 90 78 79 79 79 78 78 78
89 91 93 93 93 86 85 81 81 81 80 80 79 78 78 77 77 76 76 76 76 76 75 75 76 76 75 77 77 77 75 76 87 85 88 86 79 79 79 78 78 78 78
88 91 91 91 92 91 91 89 81 80 79 79 79 78 79 85 85 82 78 75 75 75 75 75 75 75 73 74 74 74 74 86 85 87 87 77 78 79 78 78 77 78 78
83 85 88 91 91 92 90 91 91 90 90 86 89 88 88 87 86 82 77 74 75 75 75 75 75 74 73 86 84 74 83 81 78 81 87 76 77 78 77 77 76 77 77
82 82 84 86 87 81 85 84 85 86 90 91 89 89 88 86 85 84 85 83 83 76 83 79 79 82 82 83 84 85 84 86 86 81 80 74 75 76 76 75 76 75 76
80 80 83 84 86 87 80 77 77 78 82 85 88 87 87 85 85 85 84 84 82 83 83 82 83 82 80 81 85 85 85 85 85 86 82 73 74 75 75 75 75 75 74
79 80 81 84 85 86 83 75 75 74 73 79 80 84 84 82 84 85 84 84 83 83 83 83 82 82 82 83 84 84 85 85 85 84 83 71 72 74 75 74 74 74 73
79 79 81 82 83 84 82 78 72 71 70 70 71 74 79 81 82 78 82 83 83 83 83 83 83 82 82 83 82 82 83 84 83 82 81 79 71 72 74 74 73 73 73
79 79 79 80 83 83 81 81 80 79 74 70 68 69 68 67 69 72 75 79 82 84 82 82 83 82 81 81 81 82 81 82 81 81 80 79 78 70 72 73 73 73 73
79 79 79 80 81 82 81 81 81 81 80 80 80 79 75 71 69 67 67 68 71 73 77 79 78 77 78 79 80 81 81 81 81 81 80 78 78 79 72 71 72 72 73
77 78 78 79 79 80 81 81 81 80 79 80 80 79 78 76 77 77 73 68 68 68 74 75 77 76 77 77 78 80 80 80 79 81 79 77 76 76 77 72 70 70 72
77 78 77 78 78 78 79 79 79 79 79 79 78 77 78 77 76 75 75 75 72 66 65 71 74 77 75 77 78 78 79 79 78 78 79 79 77 74 74 75 73 73 70
76 76 76 75 76 76 75 74 74 73 76 76 77 76 76 75 75 74 75 74 73 70 67 65 67 71 72 75 73 74 76 79 79 77 78 79 77 75 75 74 74 75 74
73 74 75 75 74 75 73 73 74 75 74 74 74 75 75 75 74 74 73 73 73 71 70 67 61 63 67 70 68 69 68 74 76 79 78 77 78 77 75 75 75 75 75
72 72 72 73 73 74 73 72 72 73 73 72 72 72 73 73 74 73 73 73 73 72 70 69 68 60 55 59 66 61 63 66 75 77 77 77 76 76 76 76 75 75 75
72 71 72 72 73 73 73 70 69 67 66 69 70 71 71 73 73 73 73 72 72 72 71 70 71 68 62 57 63 65 66 70 69 68 73 74 75 75 74 74 75 75 75
71 70 71 72 73 73 72 70 68 66 67 69 70 69 70 71 72 72 72 71 70 70 71 70 69 70 68 64 58 61 59 59 67 64 67 70 72 73 75 75 74 75 75
70 69 69 70 70 70 70 69 67 65 66 66 67 67 68 69 70 71 70 70 70 69 68 69 69 68 68 68 66 61 59 60 63 59 60 69 72 74 74 74 74 74 74

GFSSE_sfc_temp_045.txt.gz
Temp
89 87 82 82 82 82 82 82 83 83 82 82 83 82 82 82 82 82 82 82 82 82 83 83 83 83 83 82 81 82 82 81 81 81 81 81 81 81 81 82 82 83 80
93 91 82 82 83 82 82 82 84 82 82 82 82 82 81 82 82 82 82 82 82 82 82 82 83 83 83 83 83 82 81 81 81 81 80 79 79 80 81 80 81 82 80
93 92 87 82 83 83 83 83 83 83 82 82 82 82 81 81 82 81 82 82 82 81 81 82 82 82 83 82 81 81 81 81 80 81 81 84 83 81 80 80 80 80 80
95 94 91 82 83 83 83 83 83 83 82 82 82 81 80 81 81 81 83 81 81 81 80 81 81 81 81 81 81 81 81 80 80 81 86 85 85 81 81 80 81 80 80
95 96 87 82 83 84 84 84 83 83 81 81 82 80 80 81 80 80 81 81 80 80 79 80 80 81 81 81 81 81 80 79 80 84 83 84 82 81 81 80 80 80 79
95 96 83 82 83 83 84 83 82 80 80 80 79 79 80 80 78 79 81 80 80 79 80 79 79 80 80 81 81 80 80 80 80 89 84 83 83 80 80 80 79 79 79
96 96 90 82 83 83 82 82 82 81 80 79 79 79 80 79 78 78 79 79 79 79 79 78 78 79 80 80 81 80 79 79 81 87 87 86 82 80 80 80 79 79 79
95 94 92 83 82 82 82 82 82 80 80 79 79 79 79 79 78 77 77 77 77 77 78 77 77 78 80 79 80 79 78 79 86 88 87 86 79 79 80 79 79 79 79
96 94 95 94 86 81 81 81 82 80 80 79 79 79 78 78 78 77 76 77 77 77 77 76 77 76 78 78 80 78 77 78 82 88 89 86 78 79 80 79 79 79 78
94 95 98 96 97 92 89 81 81 81 80 80 79 79 78 78 78 77 76 76 76 76 76 76 76 76 76 77 78 77 76 77 85 85 86 82 79 79 79 78 78 78 79
92 95 96 96 97 94 91 88 81 80 80 79 79 78 79 83 83 83 79 76 76 76 76 76 76 76 74 75 76 76 76 84 84 86 87 77 79 79 78 77 77 78 78
87 89 91 92 92 93 90 90 82 87 86 87 89 88 88 90 89 85 79 75 76 76 76 76 75 75 75 83 80 75 81 85 84 83 84 77 78 78 77 77 76 77 77
85 86 87 90 90 90 89 81 82 84 80 79 83 89 91 90 88 87 85 82 80 76 81 78 78 79 84 84 85 86 85 86 85 84 82 76 76 77 77 76 76 76 76
83 84 86 89 89 90 91 82 76 74 77 77 77 78 80 85 88 87 87 86 85 84 84 84 84 84 82 82 85 86 86 86 86 86 81 74 75 76 76 76 76 75 75
82 83 85 87 88 87 86 83 75 72 72 72 72 73 72 74 78 79 86 86 85 85 84 84 84 84 83 84 85 85 86 87 86 85 84 73 74 75 76 75 75 75 74
82 82 84 85 87 87 84 83 82 81 77 72 70 70 70 69 71 71 75 78 84 85 85 84 84 83 83 85 83 84 84 85 85 84 83 75 72 73 75 75 74 74 74
82 82 82 83 85 85 84 83 82 82 82 81 81 81 77 72 69 68 68 69 75 76 82 84 84 83 83 83 83 84 83 83 84 83 81 80 75 71 73 74 74 74 74
82 81 81 82 82 83 83 83 83 82 82 81 82 81 80 79 78 77 73 69 69 68 69 72 75 78 78 79 80 81 83 83 82 83 81 79 78 79 71 72 73 74 74
81 81 80 80 80 80 81 81 81 81 81 81 81 80 79 79 78 77 76 77 75 69 66 66 72 75 75 77 78 80 82 81 81 82 81 78 76 76 76 71 71 72 73
80 80 80 80 80 80 79 79 79 79 79 79 79 78 79 78 77 75 75 75 76 74 69 66 64 65 72 74 77 79 79 80 79 79 80 81 77 74 73 74 70 71 71
78 79 79 78 78 78 75 74 73 72 75 75 76 77 76 76 76 74 73 74 74 73 72 71 68 64 62 71 71 71 75 79 80 78 79 79 77 75 73 73 73 72 71
76 77 77 77 76 76 74 74 73 74 74 74 74 75 75 75 75 74 73 72 73 71 71 71 69 66 64 63 62 66 62 71 76 79 78 78 78 77 75 74 74 73 73
75 76 75 75 75 75 75 74 73 73 72 71 72 72 73 74 73 74 73 73 72 71 69 70 69 67 63 63 59 56 56 59 68 76 77 77 77 76 76 75 75 74 74
75 75 75 75 75 75 75 72 70 67 66 69 70 71 72 73 73 73 73 73 72 71 70 69 71 69 67 64 64 61 57 56 53 54 68 76 77 76 76 74 75 75 75
74 74 73 73 74 74 73 71 69 67 68 69 70 69 71 72 73 73 72 72 71 70 70 69 68 68 68 66 65 63 59 55 54 53 49 59 68 71 75 75 74 74 75
73 72 71 71 71 71 71 70 68 66 66 66 66 66 67 69 70 71 71 71 70 69 68 68 68 67 67 67 67 66 62 58 52 50 49 54 58 66 71 74 74 73 73

GFSSE_sfc_temp_048.txt.gz
Temp
79 78 82 82 82 82 82 83 83 82 82 82 82 81 82 82 82 82 82 82 81 82 82 83 83 83 82 82 82 82 81 81 81 81 81 81 81 81 82 81 80 80 80
83 82 82 82 82 82 82 83 82 82 82 81 81 81 81 82 82 82 82 81 81 82 82 83 83 84 84 83 82 81 81 81 81 81 79 78 79 80 80 80 80 80 80
85 83 83 82 83 82 82 83 82 82 82 82 81 81 81 81 81 82 82 81 81 81 81 81 81 82 82 82 81 81 81 81 80 80 80 75 78 80 80 80 80 80 80
88 86 83 82 82 83 83 83 82 82 82 82 81 80 80 81 81 81 82 81 80 80 80 80 80 81 81 81 81 81 80 80 81 80 80 81 81 81 80 81 80 80 80
89 86 82 82 82 83 83 83 82 82 81 80 80 80 80 80 80 80 81 81 80 80 79 79 80 80 80 81 80 80 80 80 80 81 80 77 75 81 80 80 80 79 79
87 82 80 82 82 82 83 82 82 81 80 79 79 80 80 79 79 79 80 80 80 79 79 79 79 79 80 80 80 80 80 80 80 80 80 79 76 80 80 79 79 79 79
87 83 81 82 82 82 82 82 81 82 80 79 79 79 79 79 78 78 78 78 78 78 78 78 78 79 80 80 80 80 79 79 78 81 76 76 76 80 80 80 79 79 79
87 85 83 81 81 82 82 82 82 82 81 79 79 78 78 79 78 77 77 77 77 77 77 77 77 78 79 79 80 79 79 78 80 79 78 74 77 80 80 79 79 79 79
89 88 85 81 81 81 81 81 81 81 80 79 79 78 78 78 78 77 76 76 76 76 76 76 76 77 77 78 79 78 78 77 74 79 81 75 78 80 80 79 79 78 78
87 89 90 84 82 81 78 80 81 81 80 79 79 79 78 78 78 77 77 77 76 76 76 76 76 76 75 77 78 77 77 76 74 77 76 75 78 79 79 78 78 79 78
86 86 86 86 85 82 80 82 79 80 80 79 78 78 77 72 74 75 75 77 76 76 76 76 76 76 75 75 76 77 76 72 75 77 74 77 79 79 78 77 77 78 78
77 79 82 81 82 82 86 77 76 79 75 77 76 76 74 75 74 77 76 76 76 76 76 76 76 76 75 69 71 75 69 72 74 74 72 77 79 79 78 77 77 77 77
75 76 79 80 81 82 80 75 73 74 73 74 74 73 73 75 74 74 71 70 68 73 69 72 70 68 68 69 70 70 72 72 72 73 74 76 77 78 77 76 76 76 76
73 74 77 79 79 79 76 74 71 70 72 71 71 71 69 69 71 72 73 72 70 68 67 69 68 69 70 72 69 70 72 72 72 72 71 75 76 77 77 76 76 76 75
71 72 74 75 75 76 74 72 70 69 69 70 69 70 69 68 68 69 69 70 73 72 71 70 69 70 69 70 70 71 70 71 72 72 67 74 75 76 76 76 76 76 75
70 71 73 74 73 73 71 71 69 69 69 67 66 67 70 68 67 67 68 68 68 68 70 71 70 70 69 69 70 71 70 69 70 71 67 68 73 74 75 76 76 76 75
69 71 71 73 73 71 70 69 68 68 69 67 67 69 69 66 65 65 64 65 68 68 67 68 68 68 68 70 68 69 69 70 69 70 69 65 67 72 73 75 76 75 75
69 69 70 75 71 70 68 68 69 68 66 66 66 66 68 68 66 64 63 63 65 65 64 65 65 65 65 66 66 67 68 67 69 69 68 67 65 67 70 72 74 75 75
69 69 68 69 69 69 68 67 66 67 65 65 65 64 66 67 67 63 62 62 63 62 62 62 64 63 63 65 65 67 69 66 66 73 67 67 65 64 63 70 72 73 74
69 69 68 67 67 67 65 64 63 63 63 63 63 63 66 64 65 62 61 61 62 60 59 60 60 61 63 62 65 70 67 70 65 64 66 69 65 65 62 62 65 67 72
68 67 66 66 65 64 61 59 58 57 60 60 62 65 65 64 64 61 59 60 60 58 59 60 58 58 57 58 60 62 65 69 66 64 65 65 64 65 62 61 61 60 65
66 66 65 65 65 63 61 60 59 59 59 60 60 62 63 63 63 64 60 59 59 57 58 58 57 55 55 57 54 57 55 62 68 69 65 69 66 63 65 65 61 61 60
64 64 65 64 65 64 63 61 59 59 58 56 57 58 60 63 62 62 61 60 59 58 55 56 56 55 52 54 55 53 52 52 53 64 67 68 66 62 64 65 66 64 61
63 65 65 64 64 66 63 59 57 54 53 55 56 57 60 61 62 62 62 60 59 57 56 55 60 55 52 51 53 56 53 54 50 49 57 59 63 66 62 61 65 65 65
63 62 62 63 63 62 61 59 55 54 54 55 56 57 58 59 60 61 63 63 58 57 57 57 55 54 54 52 51 51 51 50 51 51 49 55 60 62 60 60 62 61 64
63 62 61 61 61 61 60 59 56 54 54 55 55 56 56 56 56 58 61 58 58 57 56 56 56 54 53 53 53 52 50 50 47 46 48 51 52 56 59 64 64 62 61

GFSSE_sfc_temp_051.txt.gz
Temp
72 76 82 82 82 82 83 82 82 82 82 81 81 81 82 82 82 82 82 81 82 82 83 83 83 82 82 82 82 82 82 82 81 81 81 80 81 81 81 80 80 79 80
76 78 82 82 82 82 82 82 82 82 81 81 81 81 81 81 81 81 81 81 81 82 82 82 83 84 82 82 82 82 82 81 81 80 79 78 79 80 80 80 80 79 80
78 80 81 82 82 82 83 82 82 82 81 81 81 80 81 81 81 81 81 81 81 81 81 81 82 81 82 81 81 81 81 81 80 80 79 75 77 80 80 80 80 80 80
80 80 79 82 82 82 83 82 82 82 81 81 80 80 81 80 80 81 80 80 80 80 80 80 80 81 81 81 80 80 80 81 80 80 79 78 80 80 81 80 80 80 80
81 81 81 82 82 82 82 82 82 82 80 80 79 80 80 79 79 81 80 80 79 79 79 79 79 80 80 80 80 80 80 80 80 81 75 74 74 80 80 80 79 79 79
78 78 80 81 82 82 82 81 81 82 80 79 79 79 80 79 79 78 79 79 79 79 78 78 78 79 80 80 80 80 80 80 80 79 75 77 75 80 80 79 79 79 79
76 77 79 82 82 82 81 81 81 82 81 79 79 79 79 79 78 78 77 77 77 77 78 77 78 78 79 79 80 80 80 79 76 76 74 73 75 80 80 79 79 79 79
78 79 79 81 81 81 81 81 81 82 81 79 79 78 78 78 78 77 77 77 77 77 77 77 77 78 78 79 79 79 79 78 77 77 73 72 77 80 80 79 79 79 78
81 79 80 78 79 81 81 81 81 81 80 79 79 78 78 78 78 77 76 76 76 76 76 76 76 76 77 77 79 78 78 77 73 74 78 73 78 80 80 79 78 78 78
83 81 80 78 79 78 75 80 80 80 80 79 79 78 78 78 78 78 77 77 76 76 76 75 75 76 75 76 77 77 77 76 72 73 73 73 78 80 79 78 78 78 78
81 79 75 75 74 74 76 77 79 80 80 79 78 78 77 71 70 73 75 76 77 77 76 76 75 75 75 75 76 77 76 70 71 72 73 77 79 79 78 78 78 78 78
71 74 75 73 75 75 78 72 71 73 72 72 72 71 72 73 71 75 74 77 77 77 76 76 76 76 74 67 66 73 70 68 68 70 71 77 79 79 78 77 77 77 77
67 70 73 72 75 74 72 70 70 70 69 70 70 69 70 71 72 72 69 68 66 73 68 71 69 68 65 64 65 66 68 67 66 69 73 76 78 79 78 77 76 76 77
67 67 70 70 71 70 69 68 67 67 67 67 69 68 67 66 67 67 67 69 68 66 65 65 64 65 65 66 64 65 65 65 67 68 70 75 77 78 78 77 76 76 76
65 66 67 67 65 66 66 65 64 64 65 65 65 68 68 66 66 66 65 67 68 69 68 65 64 65 65 66 67 67 66 66 66 67 66 74 76 77 78 77 77 76 76
62 65 66 67 65 65 63 63 62 63 61 61 60 62 63 61 61 63 65 66 67 67 68 68 66 64 63 63 65 67 66 66 65 65 65 70 74 75 77 78 77 76 76
62 65 67 68 66 63 62 62 61 61 63 60 61 62 63 60 58 57 57 58 61 63 65 66 68 67 66 65 61 64 65 66 66 66 64 64 69 73 75 76 77 76 77
62 63 64 70 65 63 61 61 61 61 59 59 59 59 62 62 61 58 57 57 56 59 61 60 60 61 63 65 64 62 62 63 65 65 64 64 63 67 71 73 75 76 76
63 62 63 63 62 63 61 60 59 60 58 57 58 58 61 61 63 58 57 56 57 55 55 59 59 58 58 59 63 67 67 67 68 71 65 63 62 63 63 70 72 74 75
63 62 61 61 61 60 59 58 57 57 58 57 57 58 60 59 60 57 56 56 56 55 55 54 55 57 57 57 63 64 65 67 67 65 67 68 62 62 61 61 65 68 73
62 60 59 61 59 58 56 54 53 54 54 56 57 60 59 59 60 58 55 56 56 54 54 54 53 53 53 55 53 53 56 61 64 69 67 66 65 63 59 61 61 60 66
62 60 58 60 60 58 57 56 54 53 54 54 55 57 58 59 60 59 57 55 56 53 54 53 53 51 50 53 51 50 48 53 57 63 67 67 66 64 63 62 61 60 59
61 59 60 60 60 59 58 56 55 54 53 52 53 54 56 58 58 57 56 55 54 53 52 52 52 51 49 49 52 50 45 44 47 54 55 59 62 63 66 65 62 61 61
58 59 59 59 59 61 58 55 52 50 49 50 50 52 54 56 57 57 57 56 54 53 52 52 56 51 48 47 48 54 51 50 47 45 51 56 61 59 56 59 64 62 61
59 57 58 58 59 58 57 55 51 50 49 50 50 51 51 53 54 55 55 55 53 52 51 52 52 51 50 48 47 47 48 48 48 48 47 48 59 59 60 55 55 61 63
58 58 58 58 58 57 56 55 53 50 50 48 48 48 48 49 50 53 55 53 53 53 51 51 51 50 50 49 48 47 47 46 46 46 48 47 48 54 60 59 58 56 57

GFSSE_sfc_temp_054.txt.gz
Temp
71 75 81 82 82 82 82 82 82 81 81 81 81 81 81 81 81 81 81 82 82 82 82 83 82 82 83 83 82 82 82 81 81 81 80 80 80 80 80 79 79 77 80
74 77 81 82 82 82 81 82 81 81 81 80 80 80 81 81 81 81 81 81 81 81 81 82 82 82 82 82 82 82 81 81 80 80 79 78 78 80 80 79 79 78 80
76 78 80 82 82 82 82 82 81 81 81 80 80 80 80 80 81 81 80 80 81 81 80 81 81 81 81 81 81 81 81 80 80 80 79 74 76 80 80 79 79 80 80
78 78 78 82 81 82 82 81 82 80 81 80 80 80 80 79 80 80 80 80 80 80 80 80 80 80 81 80 80 80 80 80 80 79 76 76 79 80 80 80 79 79 79
78 78 79 81 81 82 82 81 81 80 79 79 79 80 79 79 79 80 79 79 79 79 78 78 79 79 80 79 80 80 80 80 80 79 74 73 73 80 80 80 79 79 79
76 76 79 81 81 81 82 81 81 80 79 79 79 79 79 79 78 78 78 78 78 78 78 78 78 79 79 79 79 80 80 80 78 76 73 76 74 80 80 79 78 78 78
74 75 78 82 82 82 81 81 81 81 79 79 79 79 79 78 78 77 77 77 77 77 77 77 77 78 79 79 80 79 80 79 75 74 72 72 73 79 80 79 78 78 78
75 77 78 81 81 81 81 81 81 81 80 79 78 78 78 78 77 77 76 76 76 76 76 76 76 78 77 78 79 79 79 78 75 73 72 71 77 80 79 79 78 78 78
78 76 77 79 79 80 79 80 81 80 79 79 78 78 78 77 77 77 76 76 76 76 76 75 75 76 76 77 78 78 78 77 71 72 75 71 78 80 79 78 78 78 78
75 75 73 76 77 75 75 79 80 80 79 79 78 78 78 77 77 77 77 77 77 76 76 75 75 75 75 76 76 78 77 76 71 72 72 72 78 80 79 78 78 78 78
77 74 70 70 71 73 74 76 75 76 77 76 75 75 74 73 70 72 74 76 77 77 76 76 75 75 75 75 75 76 76 69 68 70 71 76 79 80 79 78 78 78 78
69 73 68 70 72 72 76 70 70 71 70 70 70 69 69 69 70 73 73 76 77 78 77 77 76 76 75 65 65 71 67 68 66 67 70 76 79 80 79 78 77 77 78
63 68 68 67 69 71 70 69 68 67 68 70 70 70 69 70 70 69 68 69 66 70 67 67 66 66 65 63 63 63 65 66 65 65 71 76 78 79 79 78 77 77 77
63 63 65 65 66 65 65 64 64 64 63 64 68 65 63 65 66 66 67 68 69 69 67 65 62 63 63 64 61 62 63 64 64 65 67 75 77 79 79 78 77 77 77
62 62 63 62 60 60 61 59 59 57 56 59 59 59 59 59 61 63 63 65 66 68 68 67 66 64 62 63 63 63 63 62 63 64 63 72 76 77 79 78 78 77 76
60 62 62 63 60 60 59 59 57 58 57 57 54 55 57 55 55 54 56 57 58 60 66 67 67 67 66 65 64 63 62 62 62 63 63 64 73 76 78 79 78 77 77
59 61 63 63 61 59 58 58 57 58 58 56 57 58 59 57 55 54 53 53 54 54 59 60 60 63 63 66 65 66 66 63 62 62 62 63 68 73 75 77 78 77 77
59 60 61 67 61 59 58 57 58 57 55 55 55 56 58 59 58 55 54 54 53 52 53 55 57 57 57 57 60 65 64 64 66 66 63 62 63 67 71 74 76 77 77
59 58 59 60 60 60 58 57 57 57 55 54 54 55 57 58 58 55 54 53 54 53 51 52 55 55 55 55 57 58 58 60 63 68 67 66 63 64 65 70 73 74 76
58 58 58 58 58 57 55 55 55 55 55 54 54 55 57 55 57 54 53 53 53 52 52 51 50 51 53 53 60 59 54 56 59 62 63 67 65 65 64 62 67 69 74
57 56 57 59 57 56 54 53 52 52 52 53 54 57 57 56 57 55 53 53 52 51 51 51 50 50 50 52 51 51 52 54 54 57 61 60 64 65 62 63 64 63 68
59 57 56 58 58 56 53 52 51 50 51 51 52 55 56 56 56 57 54 52 52 50 51 51 49 48 48 49 48 47 45 51 51 54 54 57 58 60 61 65 61 62 61
57 56 57 57 58 56 55 53 53 52 51 51 51 52 53 54 54 54 53 52 51 49 48 49 48 47 48 47 48 48 43 42 45 51 53 53 54 56 56 58 61 61 63
56 56 57 57 57 58 55 53 50 49 48 48 48 49 50 52 52 53 53 52 50 49 48 48 54 48 45 45 46 51 48 48 45 46 48 51 53 56 55 58 56 60 59
56 55 56 56 57 57 55 53 50 49 47 47 47 48 48 49 51 52 52 51 50 49 48 48 48 47 46 45 44 46 44 45 45 44 45 45 49 52 54 54 57 55 60
55 54 55 56 57 56 54 53 51 48 47 46 46 45 46 46 47 49 51 49 49 47 47 48 49 46 47 45 45 45 47 46 43 43 42 44 45 50 50 54 57 55 54

GFSSE_sfc_temp_060.txt.gz
Temp
70 73 81 81 82 81 80 81 81 80 80 80 81 81 81 81 81 80 81 81 81 81 81 81 82 82 82 82 82 82 82 81 80 80 79 79 80 80 80 79 79 76 80
72 74 81 81 81 81 81 81 80 80 80 80 80 80 81 81 80 80 80 81 80 81 81 81 81 81 81 81 81 81 81 80 80 79 78 78 79 79 79 79 79 78 79
73 75 78 81 81 81 81 81 80 80 80 80 80 80 80 81 80 80 80 80 80 80 80 80 80 81 81 81 80 81 80 80 80 79 78 74 77 80 79 79 79 79 80
74 75 76 81 80 81 81 81 81 80 79 79 80 79 79 80 80 79 79 79 80 80 79 79 79 80 80 80 80 80 80 80 79 78 74 75 77 80 79 79 79 79 79
73 75 76 81 80 81 81 80 80 79 79 79 79 79 78 79 79 79 78 78 78 78 78 78 79 79 79 79 79 80 80 80 79 78 73 72 73 79 79 78 78 78 78
72 73 77 81 81 81 81 80 80 79 79 79 79 78 78 78 78 77 77 77 77 77 77 77 77 78 79 79 79 80 80 79 77 73 72 74 73 79 79 78 78 78 78
71 72 76 81 81 81 80 80 80 79 78 78 78 78 78 78 77 77 77 77 77 77 77 77 77 77 78 78 78 80 79 78 72 71 71 71 73 79 79 78 78 78 78
72 73 75 80 81 80 79 80 80 79 79 78 78 78 78 77 77 77 76 76 76 76 76 76 76 77 77 77 78 78 78 77 73 71 71 71 74 79 79 78 78 77 77
73 73 73 74 77 80 80 80 79 79 79 78 78 78 77 77 77 77 77 77 77 76 77 76 76 76 76 76 77 77 77 76 70 70 73 70 74 79 79 78 78 77 77
68 69 70 71 72 71 72 78 78 77 76 76 76 75 75 73 74 75 76 75 77 77 77 77 76 76 76 76 76 76 76 73 68 69 70 70 76 79 80 79 78 78 78
69 66 68 69 70 69 71 73 72 74 74 73 71 73 69 68 70 69 74 75 76 76 77 77 77 76 76 73 73 73 73 67 67 67 68 73 76 79 80 79 78 78 78
62 65 64 67 68 68 72 68 68 69 67 67 67 67 70 68 69 70 71 73 73 73 73 73 73 72 69 64 63 66 62 63 63 65 66 73 76 78 80 79 78 78 78
59 62 64 68 68 67 65 64 62 63 61 61 60 60 59 64 65 66 67 67 68 70 69 69 68 65 62 62 62 61 62 61 61 63 66 72 75 77 79 80 78 78 78
60 62 62 63 62 59 59 58 56 55 54 54 54 55 52 54 54 54 57 57 58 60 64 66 66 67 67 65 63 61 60 59 60 61 63 70 73 76 78 80 79 78 77
58 58 58 57 55 55 56 54 54 53 51 51 52 53 52 52 52 51 50 51 52 54 55 56 57 59 59 63 65 66 65 61 60 60 59 67 71 74 76 78 79 79 78
55 56 56 57 55 55 54 54 53 53 52 52 51 52 53 51 51 51 51 51 49 48 51 52 52 54 55 55 58 59 59 61 63 63 61 59 68 71 74 77 79 79 78
54 55 56 56 56 55 54 54 53 54 53 52 52 53 53 52 51 49 49 49 49 48 50 51 51 52 52 54 52 55 57 58 59 60 60 60 61 67 70 73 76 78 79
55 55 57 63 56 54 53 52 53 52 51 51 51 51 54 54 53 50 50 49 49 48 47 47 48 49 50 50 49 51 52 54 55 56 59 59 59 62 65 69 73 76 78
55 55 56 55 56 55 53 52 52 52 51 50 50 51 53 54 54 50 49 49 49 48 47 47 47 46 47 48 51 53 52 51 52 59 54 56 57 59 60 65 70 71 74
54 54 55 54 54 53 51 50 50 51 51 50 50 52 53 52 53 50 49 49 48 47 46 46 45 46 47 46 54 54 49 50 51 50 51 56 54 57 57 59 60 63 70
53 52 53 54 52 52 51 51 50 50 49 50 51 53 52 52 52 50 48 48 47 47 46 45 44 44 44 45 44 49 46 50 48 50 49 52 54 56 56 58 59 60 63
54 53 52 53 53 52 51 50 49 48 49 48 49 51 52 51 51 52 48 48 47 45 45 45 43 42 42 44 42 41 40 48 47 50 49 52 52 53 55 57 57 62 60
52 52 53 53 54 53 52 50 49 48 47 48 48 49 50 50 50 49 48 47 46 44 44 43 42 42 40 41 42 42 38 37 41 50 48 51 51 49 51 53 55 57 59
52 52 52 53 53 54 51 50 49 48 47 46 45 46 47 48 48 48 48 47 45 44 43 43 48 43 40 39 40 45 42 41 38 40 44 46 50 52 50 50 53 55 56
52 52 52 52 52 53 50 49 47 46 45 45 44 45 45 46 47 48 47 46 45 44 43 43 43 42 40 39 39 39 38 39 39 39 41 46 44 47 49 49 50 51 54
52 52 51 51 52 51 50 49 47 46 45 44 44 43 43 43 44 45 46 44 44 43 43 44 43 41 41 40 39 39 40 38 37 37 36 41 41 46 47 50 49 50 51

GFSSE_sfc_temp_066.txt.gz
Temp
85 88 81 82 82 81 81 81 81 80 80 81 81 81 81 81 81 81 81 81 81 81 81 81 82 82 82 82 82 81 81 81 80 80 80 79 80 80 80 80 82 86 80
89 90 81 82 81 79 81 81 81 81 80 80 80 81 81 81 81 80 81 80 80 80 81 81 81 81 81 82 81 81 81 80 80 79 79 79 79 80 80 80 80 83 80
89 90 88 81 81 81 81 81 80 80 80 80 80 80 81 80 80 80 79 80 80 80 80 80 81 81 81 81 81 80 80 80 79 79 79 87 85 80 80 80 80 80 80
90 91 90 81 81 81 81 81 80 80 80 80 79 79 80 80 79 79 79 79 80 79 79 79 79 80 80 80 80 80 80 80 79 79 89 90 90 80 80 80 80 79 81
90 91 88 81 81 81 80 80 80 79 80 79 79 79 79 79 79 79 79 79 79 78 78 78 79 79 79 79 80 80 80 80 79 84 87 86 88 82 80 79 81 80 79
90 91 83 81 81 81 81 80 80 79 79 79 79 79 79 79 79 79 78 78 78 78 78 78 78 79 78 79 79 80 80 79 79 88 87 85 87 79 79 79 78 78 78
90 91 90 81 81 81 80 80 80 79 79 79 79 78 78 78 78 78 78 78 78 78 78 78 78 78 78 78 78 79 78 78 86 88 88 87 86 79 80 79 78 78 78
89 89 90 82 81 80 80 80 79 79 79 78 78 78 78 78 78 78 78 78 78 78 78 77 78 78 78 77 78 78 77 77 86 87 87 87 79 78 80 79 78 78 78
91 89 91 91 84 80 80 80 79 78 77 77 77 76 76 77 77 77 77 78 78 78 78 78 77 77 77 77 76 76 76 75 85 87 87 89 76 78 80 79 78 78 78
90 90 90 87 90 87 83 77 77 76 76 75 75 74 75 75 75 74 76 76 76 76 76 75 75 75 75 74 74 74 74 75 86 85 88 86 76 78 79 80 79 78 78
88 89 89 86 86 83 78 78 76 74 74 74 75 74 78 81 79 77 73 74 74 74 74 74 74 74 75 76 74 73 73 86 85 87 87 75 75 77 79 79 80 79 79
85 85 89 87 85 85 82 76 74 76 79 83 83 83 84 82 79 79 74 73 74 74 75 75 74 75 79 84 85 79 86 85 86 85 87 73 74 76 78 78 79 79 79
84 83 85 85 83 84 82 83 84 84 83 82 82 83 82 81 81 81 80 79 79 77 80 80 81 81 80 81 82 84 84 85 86 85 82 71 72 74 76 77 78 79 79
81 81 82 83 83 82 82 82 82 82 82 81 80 81 81 80 79 79 78 77 77 78 78 79 79 79 80 81 83 83 84 83 84 84 81 71 72 73 75 76 77 78 79
80 79 80 81 81 82 81 81 80 80 80 79 79 79 79 77 77 77 78 77 76 77 77 77 78 78 79 80 81 81 82 82 83 82 81 73 71 72 73 74 76 77 78
81 80 81 82 83 83 81 80 79 79 78 77 77 77 78 77 77 76 77 76 76 76 77 77 77 77 78 79 78 79 80 81 81 80 81 79 73 72 72 73 74 75 77
82 80 80 79 82 82 80 78 77 77 78 77 77 78 77 76 77 76 75 75 75 76 75 76 76 76 76 76 76 78 78 79 79 80 80 79 78 73 72 72 72 74 75
81 80 79 78 80 80 79 78 79 78 78 77 78 77 76 75 75 75 74 73 73 73 73 72 72 71 72 73 74 75 77 77 78 79 79 78 78 77 75 72 72 72 73
81 80 78 78 79 79 79 78 78 77 78 78 79 78 74 74 74 75 73 73 72 71 71 70 70 70 69 70 71 73 74 75 76 77 78 77 76 75 76 74 69 69 70
80 80 79 79 79 78 77 78 77 77 77 78 78 78 77 76 74 74 73 72 71 70 70 69 68 69 68 69 69 70 73 74 75 75 76 78 77 74 74 74 74 76 71
78 79 79 77 78 77 75 74 75 74 75 75 75 75 74 74 73 72 71 71 70 68 67 67 66 65 66 68 65 67 69 73 75 75 76 76 75 75 75 74 74 76 76
77 78 78 77 76 77 77 77 78 78 77 77 73 73 72 72 71 71 70 69 68 67 66 66 64 62 63 67 61 60 60 65 72 73 73 73 74 74 74 74 75 75 74
76 76 77 78 76 76 76 75 73 73 71 70 71 71 71 70 70 69 69 68 68 66 64 64 63 61 59 63 65 59 56 57 62 67 70 71 71 71 72 73 74 74 74
75 76 77 76 77 75 73 72 71 72 71 74 72 72 70 69 69 69 68 67 66 66 64 64 65 63 61 58 62 64 64 61 53 53 65 67 69 69 69 70 71 72 73
75 74 74 75 74 73 74 71 71 69 71 71 70 67 69 70 69 67 67 66 65 65 64 63 62 62 62 60 59 59 59 60 61 55 51 57 64 67 69 69 69 69 70
73 71 71 72 73 73 71 70 68 67 68 68 68 67 67 67 67 66 66 65 64 63 62 61 61 60 60 60 59 59 57 55 55 55 54 56 57 61 65 66 66 67 67

GFSSE_sfc_temp_072.txt.gz
Temp
77 79 82 82 81 81 81 81 81 81 81 81 81 81 81 81 80 80 80 81 81 81 81 81 81 82 81 81 82 81 81 81 80 80 80 80 80 81 81 80 80 81 80
82 82 82 81 81 81 81 81 81 81 80 80 81 80 80 80 80 80 80 80 80 80 81 81 81 81 81 81 81 81 81 81 80 79 79 78 79 80 80 79 80 80 80
83 83 82 81 81 81 81 80 80 80 80 80 80 80 80 80 80 80 79 80 80 80 80 80 80 80 80 80 81 81 81 81 81 81 81 78 77 80 81 80 80 81 80
87 85 81 81 81 81 80 80 80 80 80 80 80 80 80 80 80 80 79 79 79 79 79 79 79 79 80 80 80 80 80 80 80 80 80 83 81 80 80 81 80 80 80
83 83 81 81 81 80 80 80 80 80 79 79 80 80 80 80 80 79 79 79 79 79 79 79 78 79 79 79 79 79 80 80 80 80 79 76 77 80 80 79 79 79 79
83 80 80 80 80 80 80 80 79 79 79 79 79 79 79 79 79 79 79 79 79 78 79 79 78 78 79 79 78 79 79 79 79 81 80 78 76 80 80 79 79 79 79
84 81 80 81 81 80 80 80 79 79 79 79 79 79 79 79 78 78 78 78 78 78 78 78 78 78 78 78 78 78 78 77 78 78 80 76 76 80 80 79 79 79 79
85 83 81 81 80 80 80 80 79 79 78 78 78 78 78 78 78 78 78 78 78 78 77 77 77 77 77 77 77 77 77 77 78 79 77 75 78 80 80 79 79 78 78
87 85 81 79 79 80 79 79 78 78 78 77 77 78 77 77 77 77 76 76 76 76 76 76 76 77 77 76 76 77 77 76 71 75 81 74 78 79 79 79 79 78 78
85 85 84 79 80 76 75 78 77 76 76 76 76 77 77 77 76 76 75 75 76 76 76 76 77 77 78 77 76 77 77 76 72 75 73 73 78 79 79 79 79 79 79
87 84 81 79 78 77 76 75 75 76 77 77 76 77 75 71 71 70 75 76 77 77 78 78 78 78 79 79 77 77 77 73 76 74 70 75 77 78 78 78 78 78 79
82 82 83 79 78 75 80 73 71 73 71 73 74 73 71 70 69 73 73 77 78 78 79 79 79 78 76 70 70 75 72 74 73 74 70 75 76 77 77 77 77 77 78
83 83 79 78 79 79 75 71 71 72 71 70 71 71 70 71 68 67 65 65 64 73 67 69 68 67 67 67 67 68 70 70 70 72 72 74 75 76 76 76 76 77 77
81 79 80 78 79 77 73 72 71 70 69 67 68 69 66 64 65 65 64 64 63 63 64 64 63 66 66 68 66 66 67 66 67 68 68 74 75 75 76 76 76 76 77
77 77 79 79 77 75 73 71 69 67 67 66 66 68 65 63 63 63 64 63 62 63 62 62 62 63 64 65 67 66 65 66 66 66 64 74 74 75 76 77 76 76 76
77 76 77 77 76 74 71 69 66 66 65 65 64 65 67 64 63 63 62 62 61 61 62 62 61 61 62 63 64 65 64 64 65 66 66 64 74 74 76 77 76 76 76
76 76 75 75 75 72 69 67 65 65 67 64 64 66 66 65 64 62 61 60 60 61 62 61 61 61 60 63 59 62 63 63 64 65 65 65 65 72 74 75 75 76 76
75 73 73 78 73 70 68 66 66 67 65 64 64 63 66 66 65 62 60 59 61 60 59 59 58 57 57 57 56 59 59 61 62 63 64 64 63 66 69 73 75 75 75
74 72 70 71 72 70 69 67 67 67 64 64 64 63 65 66 66 61 61 60 61 59 58 58 57 56 54 55 58 58 58 58 59 67 62 64 63 63 62 70 73 72 72
73 72 71 70 70 69 66 66 64 64 64 64 64 64 66 64 65 61 60 60 60 58 56 56 55 55 54 54 62 61 56 57 59 59 61 66 63 64 62 63 62 63 72
72 70 69 69 68 66 63 62 61 60 62 62 63 66 66 64 65 61 58 59 58 56 55 56 54 52 51 53 51 51 52 59 57 56 58 58 60 62 62 62 60 60 62
70 70 69 69 68 66 64 64 63 62 62 62 62 63 64 64 63 63 59 57 57 54 55 54 52 50 50 52 47 46 43 50 52 58 57 58 58 58 60 63 61 61 60
68 68 69 69 68 66 66 64 63 62 61 59 60 60 62 64 63 61 60 57 56 54 52 52 52 50 47 49 50 47 42 40 49 53 52 55 55 56 55 57 59 61 60
67 68 69 69 68 68 66 63 61 58 56 59 59 59 60 63 62 62 60 58 56 54 53 52 56 50 48 45 47 54 49 47 45 45 49 51 54 57 55 55 56 58 59
69 67 68 68 68 67 66 63 60 58 59 60 59 59 59 60 61 61 60 58 55 53 52 52 51 50 48 46 45 45 45 45 46 46 44 48 49 52 53 53 54 55 57
67 66 65 66 66 66 64 63 60 58 58 57 57 56 56 56 56 58 59 56 54 53 52 51 50 49 48 47 47 46 44 43 45 44 44 46 46 49 51 52 53 52 53

GFSSE_sfc_temp_075.txt.gz
Temp
72 76 81 81 81 81 81 81 81 81 81 81 81 81 81 80 80 80 81 81 81 81 81 81 82 82 82 82 82 82 81 80 80 80 80 80 80 80 80 80 80 79 80
76 79 81 81 81 81 81 81 81 80 80 80 80 80 80 80 80 80 80 80 80 81 81 81 81 81 81 81 81 81 81 81 80 80 79 78 79 80 80 80 80 79 80
78 80 80 81 81 81 81 81 80 80 80 80 80 80 80 80 80 79 79 79 79 80 80 80 80 80 81 80 80 80 81 81 81 80 79 75 76 80 80 80 80 80 80
79 79 79 81 81 81 80 80 80 80 80 80 80 80 80 80 80 80 79 79 79 79 79 79 79 80 80 80 80 80 80 80 80 81 78 79 79 80 80 80 80 79 79
79 79 80 81 80 80 80 80 80 80 80 80 80 80 80 80 79 79 79 79 79 79 79 79 78 79 79 79 79 79 79 80 80 81 77 73 73 80 80 79 78 79 79
77 77 79 80 80 80 80 79 79 79 79 79 79 79 79 79 79 79 79 79 78 78 78 78 78 78 78 78 78 78 79 79 78 76 77 76 74 80 80 79 79 79 79
75 77 79 80 80 80 80 79 79 79 79 79 79 79 79 79 79 79 79 78 78 78 78 77 78 78 78 78 78 78 78 78 75 78 73 73 75 80 80 79 79 79 79
76 78 79 80 80 80 80 79 79 79 79 78 78 78 78 78 78 78 78 77 77 77 76 77 77 77 77 77 77 78 78 77 75 73 72 72 78 80 80 79 79 78 78
78 78 77 78 79 79 79 79 78 79 78 78 79 78 77 77 77 76 76 76 76 77 77 78 78 78 78 78 77 78 78 77 70 71 76 72 78 79 79 79 78 78 78
78 76 74 74 74 73 74 78 77 76 77 77 78 77 77 76 76 76 76 77 77 78 79 79 79 79 79 79 78 78 77 76 72 71 71 72 78 79 78 78 78 78 78
78 76 75 75 72 72 72 75 75 77 78 77 76 77 72 66 67 68 76 78 79 79 79 79 78 78 77 75 76 76 75 69 70 71 69 76 78 79 78 77 77 77 78
75 75 76 73 72 72 76 69 67 70 67 67 68 67 66 65 65 69 72 75 76 76 77 76 76 75 70 64 64 69 65 66 67 68 69 76 77 78 77 76 76 77 77
75 76 75 73 74 74 72 67 64 65 65 64 65 64 64 64 62 61 60 60 60 68 62 64 62 62 62 62 62 62 64 63 62 64 70 75 76 78 78 77 76 76 77
76 74 76 74 74 70 68 66 65 64 63 62 62 64 61 59 60 59 58 58 58 58 59 58 58 60 61 62 60 61 61 61 62 62 64 73 75 76 78 78 77 76 76
72 72 72 73 71 68 67 64 63 62 61 61 61 62 60 59 58 58 57 57 57 58 57 57 57 58 59 60 61 61 60 60 61 62 59 71 74 76 77 77 77 77 76
71 72 73 74 69 68 65 64 61 60 60 60 59 60 62 58 58 57 57 57 56 57 57 57 57 57 57 58 60 60 60 59 60 61 61 59 71 74 76 77 77 76 76
70 71 70 70 68 65 63 62 61 62 62 60 60 62 61 59 58 57 56 56 55 57 57 57 57 57 56 58 55 57 58 58 59 59 60 60 61 69 72 75 75 76 76
69 69 71 74 67 64 64 62 62 62 61 59 59 59 62 62 59 57 56 56 56 57 55 55 54 54 53 53 51 53 53 55 57 57 58 59 59 61 65 70 75 75 75
69 68 67 66 66 65 64 63 62 61 59 58 58 59 61 62 61 57 57 56 57 55 54 54 53 51 51 51 54 54 53 53 53 61 55 58 58 59 59 66 72 72 73
69 68 68 65 64 64 61 59 59 59 58 58 58 59 61 61 62 58 57 56 56 54 53 53 51 52 50 50 57 56 50 53 52 51 52 58 57 58 58 60 58 61 71
67 66 66 64 62 61 58 58 57 58 58 58 59 61 61 60 61 58 56 56 55 54 53 52 50 49 49 48 46 47 48 51 49 50 51 52 55 56 56 56 56 56 58
63 65 64 65 63 62 60 59 59 57 57 58 58 60 61 61 61 59 56 55 54 52 52 51 49 47 46 47 45 42 41 45 47 55 58 53 57 53 55 57 55 56 55
62 62 64 64 63 62 63 59 58 57 57 56 56 57 59 61 60 59 57 55 54 51 50 49 48 47 44 45 46 45 39 37 45 48 48 51 49 50 51 52 54 56 56
63 63 64 64 63 64 63 59 58 56 55 55 55 56 57 59 59 59 57 55 53 51 50 49 53 48 44 43 43 50 44 42 39 40 44 46 49 51 49 49 51 53 53
63 63 64 63 62 63 60 59 57 55 54 55 55 55 54 56 57 57 56 54 52 50 49 48 48 46 45 43 42 42 41 41 41 39 41 45 44 47 48 49 48 48 51
61 62 62 62 61 60 59 58 57 56 55 53 53 52 52 52 52 54 55 52 51 49 49 48 47 46 45 43 43 42 41 40 41 38 38 42 42 46 45 47 47 48 49

GFSSE_sfc_temp_078.txt.gz
Temp
71 75 81 81 81 81 81 81 81 81 81 81 81 80 80 80 80 80 80 81 81 81 81 81 82 82 81 81 81 81 81 80 80 80 80 79 79 80 80 80 79 78 80
74 77 81 81 81 81 81 80 80 80 80 80 80 80 80 80 80 80 80 80 81 81 80 81 81 81 81 81 81 81 82 80 80 79 78 78 79 80 80 79 79 79 80
76 79 80 81 81 81 81 80 80 80 80 80 80 80 80 80 79 79 79 79 80 81 80 80 80 80 80 80 80 81 81 81 80 79 78 72 74 80 80 79 79 80 80
77 78 78 81 80 80 80 80 80 80 79 80 80 80 80 80 80 79 79 79 79 79 79 79 79 79 79 79 79 80 80 80 80 79 75 76 78 79 79 79 79 79 79
77 78 79 80 80 80 80 80 79 79 79 79 80 80 79 79 79 79 79 79 79 79 78 78 78 78 78 78 78 79 80 80 79 79 73 71 72 79 79 79 78 79 79
75 75 79 80 80 79 79 79 79 79 79 79 79 79 79 79 79 79 79 79 79 78 78 78 78 78 78 78 78 79 79 79 76 74 73 74 73 79 79 78 78 78 79
73 76 78 80 80 80 79 79 79 79 79 79 79 79 80 79 79 79 78 78 78 77 77 77 78 78 78 78 78 79 79 78 72 72 72 72 74 79 79 79 78 78 78
74 76 78 80 80 80 79 79 79 79 78 78 78 77 78 78 78 78 77 77 77 77 78 78 78 79 78 78 78 79 78 76 73 72 71 71 77 80 79 79 78 78 78
76 76 76 77 78 79 79 79 79 79 78 79 78 78 77 77 76 77 77 78 78 79 79 79 79 79 79 79 79 79 78 76 68 69 74 71 78 79 79 78 78 78 78
74 74 71 73 73 73 74 78 78 78 78 78 78 77 77 77 77 77 77 78 78 79 79 78 78 78 77 77 77 77 75 73 68 69 69 71 78 79 78 77 77 77 78
73 71 71 71 71 71 72 75 76 78 78 77 76 76 71 64 65 67 76 77 78 77 77 77 76 75 73 72 74 74 71 65 66 67 68 76 78 78 78 77 77 77 77
70 71 71 70 69 70 75 68 66 69 66 65 67 64 62 62 63 67 70 74 75 73 74 74 73 71 67 60 61 66 62 61 63 65 66 76 78 79 78 77 76 76 77
72 72 71 69 70 70 70 64 62 62 61 62 63 61 61 61 59 58 57 56 57 65 58 60 59 59 59 59 59 59 59 59 57 61 66 74 76 78 79 78 77 76 76
70 71 72 71 68 67 65 63 62 61 60 59 60 60 58 56 56 55 56 55 55 55 55 55 55 57 58 59 56 57 56 57 57 58 60 71 74 76 78 78 77 77 76
70 70 71 70 66 65 63 61 60 60 59 58 58 59 57 56 56 56 55 55 54 55 54 54 55 55 55 56 57 56 56 55 56 58 56 68 71 74 77 77 78 77 76
69 69 68 69 65 64 62 60 59 59 57 57 56 57 59 56 56 56 55 54 54 54 54 54 54 53 53 53 56 56 55 54 55 56 57 55 68 71 74 77 77 76 76
69 69 69 67 65 63 61 60 58 59 59 57 58 59 59 57 56 55 54 54 53 53 55 54 54 53 53 55 52 54 54 53 54 55 56 56 57 65 69 72 76 76 76
69 69 67 72 65 62 61 59 59 59 58 57 57 57 59 58 57 55 54 54 53 53 53 53 51 51 51 50 49 51 52 52 53 53 55 54 54 57 60 67 72 75 75
69 66 65 65 63 62 60 59 59 58 57 56 55 57 59 59 59 55 54 54 54 53 52 52 52 50 50 50 53 52 50 50 50 56 51 54 54 54 56 63 67 68 72
68 66 65 63 61 60 58 57 56 57 56 55 56 57 60 59 59 55 54 54 53 52 52 51 51 50 49 48 55 53 49 49 47 48 49 55 53 54 53 55 53 57 67
66 66 64 62 60 60 56 56 55 55 55 55 56 59 59 58 59 56 54 54 53 52 51 51 49 48 48 46 45 45 45 48 46 48 48 49 51 52 52 53 52 53 55
65 65 61 63 60 60 58 57 57 55 55 55 55 57 57 58 58 57 54 54 53 51 51 50 48 46 45 45 43 39 39 43 46 51 52 49 50 49 54 54 51 52 52
61 61 62 61 60 59 59 56 54 55 54 54 54 55 56 58 57 57 55 53 52 50 50 49 47 45 44 43 44 44 38 36 38 44 46 48 46 48 47 48 51 51 51
62 63 63 62 61 61 58 57 56 55 54 53 54 54 55 56 57 57 56 53 51 49 48 47 50 45 42 42 42 47 42 41 38 37 41 44 47 47 46 46 48 49 48
60 59 60 59 59 59 58 57 55 53 53 53 52 53 52 53 53 54 53 52 50 48 47 47 46 45 43 42 41 40 38 39 38 37 39 40 45 44 45 45 46 46 48
58 58 58 58 59 59 57 55 54 54 53 51 50 50 50 49 50 52 53 50 49 48 47 47 45 44 43 41 41 40 39 38 37 36 33 39 41 43 43 45 44 45 46

GFSSE_sfc_temp_081.txt.gz
Temp
70 74 81 81 81 80 80 81 81 80 80 81 80 80 80 81 80 80 80 80 80 80 81 82 82 82 81 81 81 81 80 80 80 80 80 79 79 80 80 80 79 78 80
73 76 81 81 81 81 80 81 80 80 80 79 79 79 80 80 81 81 80 81 81 80 80 81 81 81 81 81 81 82 81 80 79 79 78 77 78 79 79 79 80 79 80
74 77 80 81 81 81 80 80 80 79 79 79 79 80 79 79 79 79 79 79 80 80 80 80 80 80 80 80 79 81 80 80 79 78 77 71 73 79 79 79 79 80 80
76 76 77 80 80 80 80 80 79 79 79 79 79 79 79 79 79 79 79 79 79 79 78 78 78 78 78 79 79 80 80 80 79 77 73 73 77 79 79 79 79 79 79
75 76 78 80 80 80 79 79 79 79 79 79 79 79 79 79 79 79 79 79 79 78 78 78 78 78 78 79 79 79 79 79 79 76 71 70 71 78 79 78 78 79 79
73 73 79 80 79 79 79 79 79 79 79 79 79 79 79 79 80 79 79 79 79 78 78 78 78 78 78 78 79 79 78 78 75 71 71 73 72 79 79 78 78 78 78
72 74 78 80 80 80 79 79 79 79 79 79 79 79 79 78 78 78 78 78 78 77 78 78 78 78 78 79 79 79 78 76 71 70 70 71 73 79 79 78 78 78 78
73 75 77 79 80 79 79 79 79 78 79 79 78 77 77 78 78 78 78 77 78 78 78 79 79 79 79 79 79 78 77 75 72 70 70 70 77 79 79 78 78 78 78
75 74 74 76 78 79 79 79 78 79 79 78 78 78 77 77 77 77 78 79 79 79 78 78 77 78 78 77 77 77 75 74 66 68 72 69 78 79 78 77 77 77 77
72 73 70 73 75 73 74 79 79 79 78 78 77 76 77 77 77 77 77 78 78 78 77 76 76 75 75 75 75 75 72 70 67 68 68 71 78 78 78 77 77 77 77
71 69 70 70 71 71 71 75 77 78 78 77 75 75 69 62 63 66 75 76 76 76 75 75 74 73 70 71 72 71 69 62 64 65 66 75 78 79 78 77 77 77 77
68 68 69 69 69 69 74 68 66 69 65 66 64 61 60 59 62 65 69 73 73 73 73 73 71 69 64 57 58 63 58 58 60 61 64 73 76 79 79 78 77 76 76
68 69 69 68 68 68 67 63 61 60 60 61 61 59 59 58 56 55 54 54 54 64 56 58 57 56 56 56 56 55 56 55 54 57 62 72 74 76 78 78 77 76 76
67 69 69 69 67 66 63 61 62 59 58 57 57 58 55 53 54 53 53 53 53 53 54 53 53 54 55 56 52 53 52 53 53 55 57 69 72 74 77 77 77 77 76
67 68 69 67 65 64 63 61 59 58 57 56 56 56 55 54 53 53 53 53 53 53 53 52 52 53 53 54 54 53 52 52 52 54 52 66 69 71 74 77 77 77 76
68 68 67 67 63 63 65 64 58 57 56 55 54 55 56 55 54 53 53 53 53 52 52 52 52 51 51 51 53 53 52 51 52 53 54 52 65 68 71 73 75 76 76
68 66 65 64 62 63 66 60 57 56 57 55 55 56 56 55 55 54 53 52 51 52 53 53 52 52 51 53 50 51 52 51 52 51 53 53 53 63 67 70 72 75 76
67 64 64 66 63 64 64 58 57 56 55 55 55 55 57 57 55 53 53 52 52 52 52 51 50 50 50 49 48 50 50 50 49 51 52 52 52 54 58 68 69 71 73
68 62 62 65 67 63 58 57 56 56 55 54 54 55 57 57 56 54 53 52 52 51 50 51 50 49 48 49 52 51 49 48 48 53 49 52 52 51 52 61 64 65 69
66 64 65 64 61 58 56 54 53 53 53 53 54 55 57 56 56 53 52 52 52 51 50 49 49 48 47 46 53 51 48 46 46 46 48 52 50 51 51 52 50 53 65
62 62 62 60 57 58 53 53 52 53 52 52 53 57 57 56 56 54 52 52 51 51 50 49 48 47 47 45 45 45 44 46 43 45 45 46 49 49 50 50 49 49 51
62 62 60 62 58 57 55 53 54 53 52 53 53 55 55 56 55 55 53 52 51 50 49 49 47 45 44 43 43 38 38 42 44 49 45 47 45 46 50 50 48 49 49
59 61 62 59 58 57 57 54 53 54 52 53 52 53 54 55 55 54 53 51 50 48 48 47 46 45 43 42 42 43 37 35 37 42 45 45 44 46 44 46 48 48 48
60 60 60 59 58 58 56 56 55 54 53 52 53 52 53 54 54 54 53 51 49 47 46 46 48 44 42 42 41 45 41 40 37 35 39 42 45 45 44 44 45 47 47
58 58 58 57 57 57 55 55 53 52 51 50 51 52 51 51 52 53 52 50 48 46 46 46 45 43 41 41 40 39 37 37 36 35 38 37 45 42 43 43 44 44 46
55 55 55 56 55 55 54 53 53 51 50 49 49 48 48 48 48 50 51 49 48 46 46 46 45 43 42 40 40 38 38 38 36 34 31 35 38 43 42 43 43 43 44

GFSSE_sfc_temp_084.txt.gz
Temp
70 73 81 81 80 80 81 81 81 81 80 80 80 81 81 81 80 80 81 81 81 81 82 81 82 82 81 82 81 81 80 80 80 79 79 79 79 80 80 80 79 79 81
72 75 81 81 80 80 81 81 80 81 80 79 79 79 80 80 81 81 81 81 80 80 80 81 81 81 80 81 81 81 80 80 79 78 77 76 78 79 80 80 80 80 81
74 76 78 81 81 80 81 80 80 79 79 79 79 79 79 79 79 79 80 80 79 80 79 79 79 79 80 80 80 80 80 80 79 78 77 71 74 79 80 79 80 80 80
75 76 77 80 80 80 80 80 79 79 79 79 79 79 79 79 79 79 79 79 79 79 78 78 78 78 79 79 80 79 80 79 78 76 72 72 76 79 79 79 79 79 79
73 75 77 80 80 80 79 79 79 79 79 79 79 79 79 79 79 79 79 79 79 79 79 78 78 79 79 79 79 79 80 79 77 74 70 70 71 79 79 79 78 78 79
71 73 79 80 80 79 79 79 79 79 79 79 79 79 80 79 80 80 80 79 78 78 78 78 78 78 79 79 79 78 79 77 74 70 70 72 72 79 79 78 78 79 78
70 73 77 80 80 79 79 79 79 79 79 79 79 80 78 78 77 79 78 78 78 78 79 79 79 79 79 79 78 78 77 76 70 69 69 70 73 79 79 78 78 78 78
72 74 76 79 80 79 80 79 79 79 79 78 78 77 78 78 78 78 78 79 79 79 78 78 78 78 78 78 77 76 76 74 71 69 69 69 77 79 79 78 78 78 78
73 72 72 75 78 79 79 79 78 79 79 78 78 78 77 77 78 78 79 79 78 78 77 77 77 77 77 76 76 74 74 73 66 68 72 70 78 78 78 78 77 77 78
70 71 70 72 73 73 74 78 79 79 78 78 77 77 77 76 77 78 77 78 77 77 76 76 75 74 74 74 74 73 71 69 65 66 67 72 78 79 78 77 77 77 77
69 68 69 70 71 71 73 76 78 78 78 77 75 73 67 61 62 67 75 76 76 75 75 74 73 71 69 70 71 70 66 59 62 63 64 74 77 79 79 78 77 77 77
67 67 68 69 69 70 74 67 67 70 65 64 62 59 58 58 62 66 70 73 73 73 72 72 70 68 62 55 56 61 56 56 57 58 60 73 75 77 78 78 77 76 76
68 68 70 70 68 68 66 63 62 61 61 60 59 57 57 56 54 53 52 53 53 62 54 56 54 54 54 54 53 53 54 54 52 54 60 71 73 75 77 77 77 76 76
66 71 71 69 67 66 64 65 64 59 58 57 56 56 54 52 52 51 51 51 51 51 52 52 51 53 53 54 50 51 50 51 52 53 55 68 70 72 75 77 77 77 76
66 70 70 68 64 63 65 64 60 58 57 55 54 55 53 52 51 51 51 51 51 51 52 51 51 51 51 52 52 51 50 50 50 51 50 63 68 70 73 74 76 77 76
67 67 69 66 62 62 62 63 62 56 55 54 53 54 54 53 52 52 52 51 51 51 51 51 50 50 50 51 52 52 50 49 49 50 51 50 66 69 71 73 73 76 76
68 68 66 65 62 61 60 61 59 56 55 53 53 54 54 54 54 52 52 51 51 51 52 51 51 50 50 52 49 50 51 49 49 50 51 52 52 62 68 69 72 74 75
68 65 64 66 62 61 59 62 57 56 54 53 53 53 55 55 54 52 52 51 51 51 51 50 50 50 49 49 48 50 49 49 49 50 51 51 51 52 56 66 67 70 72
67 64 62 60 60 60 61 59 56 55 54 53 52 53 55 56 55 53 52 51 51 51 50 51 48 49 48 48 51 49 48 46 47 52 48 50 50 50 50 59 62 64 67
65 62 59 59 60 58 55 53 52 52 51 51 52 53 55 55 55 52 51 51 50 50 48 48 48 46 46 45 52 50 46 45 45 45 46 51 49 49 49 50 48 52 62
59 57 56 58 55 58 53 52 51 51 50 50 51 55 55 54 54 52 50 50 50 50 49 49 47 46 45 43 44 44 44 45 43 44 44 45 47 48 48 48 48 48 50
59 57 56 58 57 56 55 52 52 51 50 51 51 52 54 54 54 53 52 50 49 48 48 47 47 44 43 43 42 38 38 43 44 46 44 46 44 45 48 49 48 48 47
56 56 58 58 58 55 54 52 51 51 50 51 51 52 53 54 54 53 51 50 49 47 47 46 45 45 43 41 42 43 37 35 36 42 44 44 44 44 44 45 48 48 48
55 56 58 58 57 56 54 54 53 53 52 51 51 51 52 52 52 52 52 50 48 46 45 45 46 43 42 42 40 45 40 40 37 35 39 42 43 45 44 44 45 46 47
57 57 57 56 55 55 53 53 52 51 50 49 49 50 49 49 50 51 50 49 47 45 45 45 43 42 41 41 40 39 37 36 35 35 37 36 40 42 42 43 43 44 45
55 55 54 55 53 53 52 52 51 50 49 48 48 48 47 46 47 48 49 47 46 45 45 44 43 42 41 39 39 38 38 37 36 34 31 34 34 40 41 42 42 43 44

GFSSE_sfc_temp_087.txt.gz
Temp
77 81 81 81 81 81 81 81 82 80 80 81 80 81 81 81 81 81 81 81 81 81 82 82 82 82 81 81 81 81 80 80 80 79 79 79 79 81 81 80 81 85 81
80 82 81 81 81 81 81 81 82 80 79 79 80 80 80 81 81 81 80 81 80 80 80 81 81 81 81 81 81 81 80 80 79 79 78 78 78 80 80 80 80 81 81
79 82 82 81 81 81 81 80 80 79 79 79 79 79 80 80 79 80 81 80 80 80 79 80 80 80 80 80 80 80 80 79 78 78 79 83 82 80 80 79 80 80 80
81 82 82 81 80 81 80 80 79 79 79 79 80 80 80 79 79 79 79 79 79 79 79 79 79 79 80 80 79 80 80 79 77 78 83 83 84 80 80 80 80 80 80
80 81 82 80 80 80 80 79 79 79 79 80 80 80 80 80 80 80 79 79 79 79 79 79 79 79 79 79 79 80 79 78 77 80 81 81 83 81 80 79 80 79 79
80 82 81 80 80 80 80 79 79 79 79 79 80 80 80 80 81 80 80 79 79 79 79 79 79 79 79 79 79 79 78 77 78 81 81 81 82 80 79 79 78 79 79
80 82 82 80 80 80 79 79 79 79 79 79 80 80 78 78 79 79 79 78 79 79 79 79 79 79 78 78 78 78 77 76 80 80 80 81 81 79 79 79 79 78 79
79 80 82 80 80 79 79 79 80 80 79 79 78 77 78 79 78 79 79 79 78 78 78 78 78 78 77 76 77 76 75 75 80 80 79 80 78 79 79 78 78 78 78
80 80 81 82 81 79 79 79 79 80 78 78 78 78 78 78 79 79 78 78 77 77 77 76 76 76 76 75 74 74 73 73 79 78 80 81 78 79 78 78 78 78 78
79 80 81 81 82 82 81 79 79 79 78 78 77 77 77 77 78 78 77 77 76 76 75 75 74 74 74 74 73 71 70 71 75 75 78 78 78 79 79 78 77 77 77
77 78 79 79 80 79 80 79 79 78 77 77 75 73 73 75 77 78 76 76 76 75 74 73 72 70 69 70 70 69 69 72 74 74 76 74 76 78 79 78 77 77 77
73 76 78 78 78 79 77 80 78 78 77 76 74 73 74 75 76 76 75 74 73 73 72 71 69 69 70 71 70 69 71 71 71 71 73 72 74 76 78 78 77 77 77
75 75 77 76 78 78 78 77 77 76 74 73 73 72 73 70 70 70 68 68 69 67 69 69 70 69 68 69 69 70 69 70 70 70 69 69 72 74 76 77 77 77 77
73 74 76 74 73 74 71 74 74 74 73 72 70 71 70 69 69 69 68 67 67 68 68 68 68 68 68 69 71 70 70 69 69 69 68 67 70 72 74 75 77 77 76
72 74 75 71 72 73 72 73 68 72 72 71 70 69 69 68 68 67 67 67 67 68 69 68 68 68 69 69 69 69 68 67 67 67 66 66 69 71 73 74 75 77 77
74 74 73 70 71 73 70 72 72 70 69 68 67 68 68 68 68 67 67 66 67 67 67 67 68 67 66 69 67 67 66 66 66 66 66 65 66 68 70 73 74 75 76
73 74 71 70 71 68 65 67 68 65 66 67 67 68 68 67 68 67 66 66 66 67 67 67 67 67 66 66 67 67 65 65 65 66 65 65 65 64 66 68 71 73 74
73 72 71 70 69 67 64 65 66 67 67 67 66 66 66 67 66 66 66 65 65 66 66 66 66 66 65 65 67 67 66 66 66 66 65 65 64 64 64 65 66 68 70
72 71 69 68 66 64 67 65 67 66 66 66 66 66 66 66 67 67 66 65 65 65 66 66 65 65 65 65 66 67 66 65 64 66 65 64 62 62 64 63 62 63 66
73 71 69 67 64 63 61 65 63 64 64 64 66 66 67 66 66 66 65 64 65 64 64 64 65 64 63 62 64 65 65 64 63 64 64 65 63 62 63 62 63 64 62
68 67 65 63 63 63 63 62 63 64 64 64 64 67 67 67 66 65 65 65 63 64 64 64 63 62 61 61 62 63 64 64 64 63 64 65 63 63 63 63 63 63 64
66 65 63 63 61 66 65 64 66 65 64 66 63 64 65 65 66 65 64 63 63 62 61 61 61 61 60 60 60 57 56 62 64 63 65 63 63 63 63 63 63 63 62
64 62 63 62 63 63 65 62 61 62 61 61 62 63 63 65 65 65 64 64 63 62 61 60 59 58 59 58 59 60 55 53 55 62 62 62 62 62 63 62 63 62 62
63 62 62 62 65 65 63 64 64 64 64 65 66 65 65 64 65 64 64 63 62 61 60 60 59 59 57 58 57 58 59 58 52 51 58 60 62 60 61 61 61 62 62
61 62 63 65 66 65 65 65 64 63 63 63 63 63 63 62 61 61 62 61 61 60 60 59 58 57 58 58 57 56 55 54 54 50 49 54 57 59 60 59 59 60 61
62 61 62 64 64 63 62 62 62 62 62 62 61 62 61 60 60 60 59 60 60 59 58 58 57 56 56 56 56 54 54 53 54 51 49 52 52 54 57 59 58 58 59

GFSSE_sfc_temp_093.txt.gz
Temp
85 85 81 81 81 81 81 81 81 82 81 81 81 81 81 81 81 81 81 81 81 81 81 81 81 81 82 82 81 81 80 81 81 81 80 79 80 81 81 80 82 84 81
90 88 81 81 81 81 82 81 80 80 80 81 81 81 81 81 80 80 80 80 80 80 81 80 81 81 81 81 81 80 80 81 81 81 82 80 79 80 80 80 80 82 81
90 89 85 81 81 81 82 80 80 80 80 80 80 80 81 81 80 80 80 79 80 80 80 80 80 80 81 81 80 80 80 81 81 82 83 86 82 80 81 80 80 80 80
93 90 87 81 81 81 80 80 80 80 80 80 80 80 80 80 80 80 80 80 80 80 80 80 80 80 80 80 80 79 80 81 81 82 87 87 86 80 80 81 80 80 80
92 92 85 81 81 80 80 80 80 80 80 80 80 80 80 80 80 80 80 80 80 80 79 79 79 79 79 79 79 79 80 81 81 85 83 81 81 81 80 79 80 80 79
92 92 81 80 80 80 80 80 80 80 80 80 80 80 80 81 80 80 80 79 79 79 79 78 78 79 79 79 78 79 79 80 83 85 83 81 80 79 80 79 79 79 79
92 90 85 80 80 80 80 80 80 80 80 80 80 80 80 80 79 80 79 79 79 78 78 78 78 78 78 78 77 78 78 78 86 83 82 80 79 79 79 79 79 79 79
91 89 85 80 80 80 80 79 79 80 80 79 78 77 78 79 79 79 78 78 78 77 77 77 77 76 76 76 76 76 77 77 85 83 82 79 78 79 79 78 78 79 79
93 90 88 86 82 79 79 80 79 79 78 78 78 79 79 79 78 78 77 77 77 76 76 76 76 75 75 75 75 76 77 77 83 82 83 79 77 79 79 78 78 78 78
92 92 91 89 87 85 84 79 79 78 78 78 78 78 78 78 77 77 77 76 76 75 75 74 74 74 74 74 75 76 77 78 82 82 78 75 76 79 78 78 78 78 78
91 92 93 91 90 89 87 82 79 78 77 77 76 77 78 82 82 79 76 75 75 74 74 74 75 76 75 75 76 76 77 81 82 80 76 73 75 77 78 78 77 77 77
88 91 93 93 91 89 89 85 82 82 84 85 84 83 86 85 82 79 75 74 74 74 74 75 77 77 80 82 81 79 82 81 80 79 73 72 74 76 77 77 77 77 77
90 91 92 93 92 91 91 88 84 87 87 86 85 86 86 82 81 80 76 77 77 77 81 80 80 80 81 81 81 81 80 81 80 78 71 72 74 75 76 76 77 77 77
89 89 92 92 91 89 91 85 87 87 86 85 84 85 83 82 81 81 80 79 79 81 80 80 79 80 80 81 82 81 80 79 78 76 70 70 72 74 75 76 76 77 76
89 89 90 91 91 85 85 80 85 86 85 84 84 83 83 81 81 81 80 80 79 80 80 79 79 79 79 79 80 80 79 78 77 75 70 69 70 71 73 74 76 77 76
90 89 90 89 90 81 86 85 85 85 85 83 81 81 83 82 81 80 79 78 79 80 80 80 79 78 78 80 78 79 79 78 78 75 74 68 68 69 70 71 72 73 73
91 90 89 85 88 85 82 77 72 78 81 81 81 82 81 80 80 79 79 78 79 80 80 79 79 79 78 79 79 78 77 78 77 77 74 73 71 67 68 68 70 70 71
92 89 89 82 83 85 77 72 73 70 72 78 80 80 80 79 79 78 77 77 78 77 77 77 77 76 76 76 77 77 77 77 77 76 74 72 71 72 67 66 67 68 69
92 90 86 81 78 71 65 64 63 66 70 75 78 79 78 78 79 78 77 77 77 76 76 75 75 74 74 74 75 76 76 75 74 76 74 71 69 69 70 67 66 65 66
91 88 83 75 77 68 62 64 69 71 75 76 78 78 79 77 77 77 77 76 76 74 74 74 74 75 72 72 74 74 75 75 74 73 74 74 72 70 70 69 68 69 66
84 80 78 75 69 64 63 69 70 70 74 76 77 79 78 78 77 76 76 76 75 73 74 73 73 71 71 73 69 71 72 75 74 73 73 73 73 72 71 70 69 69 69
74 77 74 73 68 68 66 73 76 76 76 76 75 77 78 78 77 77 76 75 75 72 72 71 70 68 70 71 66 65 62 68 73 72 72 72 72 72 71 71 72 70 68
81 79 80 70 68 70 70 76 78 78 76 74 73 74 76 77 77 76 76 75 75 73 71 71 70 67 64 69 70 64 59 59 63 69 71 71 71 69 70 70 70 69 69
81 79 77 74 70 72 74 76 75 70 70 73 73 75 74 76 76 76 76 75 75 74 72 71 71 69 67 63 67 68 67 65 57 56 65 67 69 69 69 68 68 69 68
81 79 78 76 73 74 77 75 73 75 76 76 76 74 75 75 76 76 76 75 73 73 72 71 70 69 68 65 64 65 64 64 64 58 54 59 65 67 68 68 67 67 67
78 79 77 76 75 75 76 76 75 74 74 73 73 73 73 74 74 74 74 73 72 71 70 69 68 67 66 66 65 64 61 59 58 57 55 57 58 61 65 66 65 65 65

GFSSE_sfc_temp_099.txt.gz
Temp
72 76 81 82 82 82 82 81 81 81 81 81 81 81 81 81 80 80 81 80 80 81 81 81 82 81 81 82 82 82 82 82 81 80 79 79 80 81 80 80 80 80 81
75 78 81 81 81 82 81 81 81 81 81 81 81 81 80 80 80 80 80 80 80 80 80 81 81 81 81 81 81 82 82 80 80 79 78 78 79 80 80 79 80 80 81
76 79 81 81 81 81 81 80 81 81 80 80 81 80 80 80 80 80 80 80 80 80 80 80 81 80 80 80 81 81 81 80 79 79 78 74 77 80 80 80 79 80 81
78 79 79 81 81 80 80 80 80 80 80 80 80 80 80 80 80 80 80 80 80 79 80 80 80 80 80 80 80 80 81 79 78 77 75 77 80 80 80 80 80 80 80
78 78 79 80 80 80 80 80 80 80 80 80 80 80 80 80 80 80 80 80 79 79 79 79 79 79 79 79 79 80 79 78 77 75 72 73 76 80 80 80 79 79 79
77 76 79 80 80 79 80 80 80 80 80 80 80 80 80 81 80 80 79 79 78 79 79 79 78 78 78 78 79 80 80 78 75 72 70 72 74 79 79 79 79 79 80
75 77 79 80 80 80 80 80 80 80 80 80 80 81 80 80 79 79 78 78 78 78 78 78 79 77 77 78 80 80 78 76 72 70 69 69 75 78 79 78 79 79 79
75 77 79 80 80 80 80 80 80 80 80 79 78 79 79 79 79 78 78 77 77 77 77 76 77 77 77 78 79 79 76 74 72 69 68 68 77 78 79 78 78 79 79
76 75 75 76 78 79 79 79 79 79 79 78 79 79 78 78 77 77 77 76 76 76 76 77 77 77 78 79 79 78 75 72 65 65 70 67 77 78 78 78 78 77 79
75 74 69 71 73 72 76 78 79 79 79 79 78 78 77 77 76 76 76 76 76 76 76 77 78 78 78 78 78 77 73 70 63 63 63 69 77 78 78 77 77 77 77
75 72 72 71 72 72 73 76 78 78 78 78 77 77 73 66 67 69 74 75 76 76 77 77 76 77 76 76 77 75 69 62 62 61 62 75 77 77 77 77 77 77 77
72 73 73 73 73 74 78 71 70 74 70 69 69 68 66 65 65 69 71 75 77 77 77 78 77 76 70 63 63 68 61 60 60 61 66 75 76 77 77 77 76 76 76
75 75 75 75 76 75 74 72 71 70 68 67 68 67 68 66 63 60 60 61 60 69 63 66 64 63 62 62 62 62 61 59 57 59 68 73 75 77 77 77 76 76 76
76 77 78 78 77 75 74 72 71 71 68 65 66 68 64 61 60 58 58 58 58 59 60 60 60 63 64 63 61 61 59 57 56 57 63 72 73 74 76 76 75 74 74
76 78 79 80 78 76 74 72 72 68 69 66 65 65 63 61 59 59 59 59 59 60 60 60 61 61 62 63 62 61 59 57 56 57 57 71 72 72 74 74 74 74 74
77 78 80 80 79 77 73 74 74 69 67 65 64 65 65 61 61 60 60 60 60 60 60 61 61 61 60 61 62 62 60 58 57 57 57 59 70 71 72 72 73 73 73
80 76 79 76 78 74 72 71 70 70 68 65 66 65 65 63 63 62 60 60 60 60 62 61 60 60 60 62 58 60 62 59 58 57 57 57 58 68 70 70 71 71 72
80 76 76 77 71 71 68 66 70 68 66 66 69 69 68 68 65 64 61 60 59 60 60 59 58 57 57 57 57 57 58 59 58 58 58 57 56 58 63 69 69 69 70
79 76 73 70 67 64 64 63 62 64 67 68 64 64 66 66 66 62 62 62 63 61 60 60 57 57 56 56 60 58 56 56 58 62 57 58 57 56 55 67 69 68 68
76 78 72 68 64 62 61 61 61 62 63 65 64 64 65 64 64 61 61 60 60 58 57 58 57 56 56 56 63 60 55 55 55 55 56 59 56 57 56 56 56 58 67
71 73 69 67 62 61 59 59 58 60 63 64 64 66 66 63 63 61 59 59 58 58 56 57 56 55 54 53 53 53 54 54 53 54 54 55 56 56 55 55 54 53 56
69 71 66 65 62 62 61 60 60 60 62 64 63 65 64 63 62 62 60 59 58 57 56 56 55 52 52 52 50 47 46 51 52 54 52 55 52 54 55 57 55 54 53
68 70 65 63 62 62 62 60 60 61 62 60 61 61 62 64 63 62 60 58 57 56 55 55 55 53 51 51 52 50 44 43 44 50 51 51 52 52 52 53 55 55 55
67 68 66 63 62 62 61 60 59 62 62 60 60 60 61 63 62 61 61 59 58 55 55 55 56 53 51 50 50 55 49 48 45 42 47 50 51 53 50 49 51 53 52
66 67 66 64 63 62 62 61 60 58 58 57 58 60 60 62 61 62 61 59 57 55 55 55 54 52 50 49 48 48 46 46 45 42 40 44 48 48 48 48 48 49 50
65 67 66 65 64 64 63 62 59 59 58 56 57 57 60 57 61 62 60 57 55 54 54 53 52 52 50 49 47 46 46 45 43 42 39 39 40 44 47 48 47 47 48

GFSSE_sfc_temp_102.txt.gz
Temp
72 75 81 82 82 82 82 82 82 81 81 81 81 81 81 80 81 81 80 80 80 81 81 81 81 81 81 82 81 82 81 80 80 79 79 79 79 80 80 80 80 79 81
74 78 81 82 82 82 82 81 81 81 81 81 81 81 80 80 80 80 80 80 80 80 81 81 81 81 81 81 81 80 80 80 79 79 78 77 78 80 80 79 80 80 81
75 79 80 81 82 82 81 81 81 81 80 80 81 80 80 80 80 80 80 80 80 80 80 81 80 80 80 80 80 80 79 79 79 78 77 73 78 80 80 80 80 81 81
77 78 78 81 81 81 81 81 80 80 80 80 80 80 80 80 80 80 79 79 80 80 80 80 79 79 79 80 79 79 79 78 77 76 73 74 78 80 80 80 80 80 80
76 77 79 80 80 80 80 80 80 80 80 80 80 80 80 80 80 79 79 79 80 79 79 79 78 78 79 79 79 78 78 77 75 73 70 74 73 80 80 79 79 79 79
74 75 79 80 80 80 80 80 80 80 80 80 80 80 80 80 80 79 79 79 80 79 79 78 78 78 79 79 78 78 77 76 73 68 67 70 74 79 81 79 79 79 79
72 75 78 80 80 80 80 80 80 80 80 80 80 80 79 80 79 78 78 78 78 78 79 78 78 78 79 79 78 77 76 74 69 67 66 68 73 78 79 79 79 79 79
74 76 78 79 79 80 80 79 80 80 80 80 79 79 79 79 78 78 77 77 77 77 77 77 78 78 79 78 77 75 74 72 68 65 66 67 77 78 78 78 79 79 79
75 75 75 76 78 79 79 79 79 79 79 78 79 78 78 78 77 77 77 77 77 77 77 78 78 79 79 78 76 75 73 71 61 63 69 67 77 78 78 77 77 78 78
73 73 68 70 73 72 76 79 79 79 78 78 78 77 77 76 76 76 76 76 77 77 78 78 78 78 78 77 75 73 71 69 61 63 63 70 77 78 77 77 77 77 77
71 68 68 68 69 70 72 76 78 78 78 77 76 76 71 65 66 68 74 76 77 77 77 77 78 76 75 75 73 71 66 59 60 61 63 75 77 77 77 77 76 76 76
67 68 68 68 69 71 76 71 70 75 70 68 67 64 63 62 63 67 72 76 77 77 77 77 76 73 67 59 62 64 57 58 59 61 66 75 77 77 76 76 76 76 76
68 69 69 69 71 72 71 70 68 66 66 67 66 64 63 63 60 59 59 59 58 67 60 62 61 60 59 59 58 57 57 56 56 59 69 74 76 77 76 75 75 75 75
68 70 71 72 72 72 71 70 67 67 63 64 64 64 61 58 57 57 56 56 57 57 57 57 57 59 59 59 57 56 55 55 56 57 65 73 74 75 75 75 74 74 74
70 72 72 73 73 71 70 69 68 65 64 64 65 63 61 58 57 57 56 56 56 56 58 57 58 58 58 58 58 57 54 54 55 56 57 71 72 73 74 74 74 74 73
73 73 74 74 74 73 70 70 69 64 64 64 63 63 61 59 58 57 57 57 56 57 57 57 57 57 57 57 58 58 55 54 55 55 57 60 71 71 72 73 73 73 73
76 75 75 75 75 72 69 68 67 66 66 63 62 62 64 60 59 58 57 56 57 58 58 58 56 56 56 58 55 56 56 55 55 55 56 56 59 69 70 71 71 72 72
77 75 77 77 74 72 70 65 69 65 66 64 63 63 65 62 61 58 58 58 58 59 57 56 56 55 54 55 54 54 54 55 54 54 55 55 55 57 64 69 70 71 71
73 75 75 73 70 67 64 62 61 61 65 65 62 62 63 62 62 59 58 57 58 58 57 59 56 56 55 54 58 55 54 54 54 59 54 55 54 54 54 65 69 68 69
71 72 71 68 66 66 63 62 61 61 61 66 65 62 62 61 61 59 57 57 57 56 55 57 55 53 53 53 60 57 52 53 53 53 53 57 54 55 54 55 53 57 68
70 69 69 67 65 63 61 61 59 59 59 62 63 64 63 64 61 58 58 57 56 56 55 55 53 54 52 51 52 52 52 51 50 50 51 51 53 54 53 53 52 52 54
70 68 69 68 63 63 62 61 60 61 60 63 62 63 62 62 61 61 58 57 56 55 55 54 53 50 50 50 49 45 45 50 51 51 50 53 51 52 54 55 52 52 51
69 69 67 63 64 63 63 61 60 59 58 58 60 61 61 63 61 61 59 58 56 54 54 54 53 53 50 49 50 49 43 42 42 48 49 50 49 49 49 50 51 52 51
68 69 66 63 63 62 61 62 61 60 58 56 57 59 60 61 60 61 59 58 57 55 54 54 55 52 50 49 48 52 47 47 45 43 46 46 47 50 47 47 48 49 49
66 65 63 62 62 61 62 61 60 59 58 57 57 58 59 59 60 59 58 56 55 54 54 54 52 51 49 48 47 46 45 43 42 41 39 43 46 46 46 46 46 45 47
66 64 63 62 62 61 61 60 59 57 55 56 56 55 56 56 57 61 59 58 57 53 52 51 50 49 48 47 46 45 45 44 42 40 37 37 39 43 45 46 45 45 46

GFSSE_sfc_temp_105.txt.gz
Temp
69 73 81 82 82 82 81 82 81 81 81 81 81 81 81 81 81 80 80 80 80 81 81 81 81 81 81 81 81 80 80 80 79 79 79 79 80 80 80 80 80 79 81
74 76 81 82 81 82 82 82 81 81 81 80 80 80 81 81 80 80 80 80 80 81 81 81 81 81 81 80 80 80 80 79 78 78 78 77 78 80 80 80 80 80 81
74 77 80 81 81 82 81 81 81 81 80 80 80 80 80 80 80 80 80 80 80 81 81 80 80 80 80 79 79 79 79 78 77 76 76 73 78 80 80 80 80 81 81
76 77 78 81 81 81 81 81 80 80 80 80 80 80 80 80 80 79 79 80 80 80 80 79 79 80 79 79 78 78 78 77 76 75 71 72 77 80 80 80 80 80 80
75 77 79 81 81 81 81 80 80 80 81 80 80 80 80 80 79 79 80 80 79 79 79 79 79 79 79 78 78 78 77 76 75 71 69 71 71 79 80 79 79 79 79
73 75 79 80 80 80 80 80 80 80 79 79 80 80 80 80 79 80 80 79 79 78 78 78 79 78 78 78 77 77 76 75 72 67 67 71 73 80 79 79 79 79 79
71 75 78 80 80 80 80 80 79 79 79 80 80 80 80 80 79 78 78 79 79 78 78 78 79 79 78 77 77 76 75 74 66 65 66 68 76 78 80 79 80 79 79
73 75 78 80 79 79 80 79 79 79 79 80 79 79 79 78 78 78 78 78 77 77 78 78 79 78 77 76 76 75 73 72 67 64 65 67 77 78 78 79 78 79 79
73 73 74 75 77 79 79 79 79 79 80 79 79 79 78 78 77 77 77 77 77 77 78 78 78 78 76 76 75 74 73 71 61 63 68 67 77 77 77 77 77 77 78
71 71 68 70 72 72 75 79 79 79 78 78 79 78 77 77 76 76 77 77 78 78 78 78 78 77 76 75 73 72 70 68 60 62 64 71 77 77 77 77 77 77 77
69 66 67 67 68 69 71 75 78 78 78 78 77 76 71 65 66 67 74 77 78 78 78 77 77 76 74 73 72 70 66 59 61 61 63 76 76 77 76 76 76 76 76
65 66 66 66 67 69 75 71 70 74 70 68 66 63 62 62 62 67 72 77 77 77 77 76 74 72 65 57 60 62 56 58 59 61 68 76 76 76 76 75 75 75 75
66 68 67 67 68 69 70 68 66 65 65 64 63 62 61 61 60 58 57 57 57 65 58 61 59 57 56 56 55 55 56 55 56 59 70 75 76 76 75 75 74 74 74
65 68 68 69 70 69 70 68 65 65 63 62 63 62 59 56 56 56 56 55 55 55 55 55 55 56 56 56 54 53 53 54 55 57 65 73 74 75 75 75 74 74 73
66 68 69 69 70 69 69 67 65 63 63 63 62 61 58 56 55 55 55 55 54 55 55 55 55 55 55 55 54 54 52 52 54 55 57 72 73 74 74 74 74 73 73
69 69 70 70 71 69 68 67 66 65 63 62 60 60 60 57 56 56 55 55 54 55 55 55 55 55 54 54 55 54 52 52 53 54 56 59 71 72 73 73 73 73 73
71 71 70 70 72 69 68 68 66 66 64 63 61 61 60 58 57 56 55 54 54 55 56 55 54 54 54 56 52 53 54 52 53 53 54 55 57 69 71 72 72 73 73
72 71 72 74 72 70 68 67 66 64 62 62 62 61 61 59 58 56 55 55 54 55 55 55 54 53 52 53 51 52 52 53 53 52 54 54 54 56 62 70 71 72 72
72 72 71 73 71 69 68 65 61 60 64 63 63 62 60 60 59 57 56 55 55 55 54 56 52 53 52 53 54 53 52 52 53 57 52 54 53 53 53 63 67 68 70
70 69 70 71 71 70 64 60 58 57 58 61 64 65 63 60 59 56 55 55 55 53 53 53 53 52 52 52 59 55 51 51 51 51 51 55 52 53 52 53 51 54 66
66 67 70 69 70 66 62 60 58 58 57 58 62 65 63 60 59 57 54 55 54 55 53 53 52 52 50 49 51 51 50 49 48 48 49 49 52 52 51 52 50 50 51
66 67 67 68 67 65 63 61 59 59 59 60 61 62 63 63 60 58 57 54 54 53 53 53 53 50 49 48 47 44 45 50 49 49 48 51 48 49 51 52 50 50 49
66 67 68 69 66 63 62 61 59 58 59 58 60 61 61 63 62 61 59 57 56 55 53 52 52 52 50 48 48 48 43 43 42 47 46 47 47 47 47 48 49 49 48
65 67 67 65 63 63 62 62 60 59 57 57 56 54 57 62 60 60 59 57 55 53 53 52 53 50 50 49 47 51 47 46 44 43 45 44 45 48 45 46 46 47 47
67 65 62 63 62 62 62 62 60 59 56 55 55 57 58 60 60 59 57 56 54 53 51 52 50 50 49 47 47 45 43 41 40 41 40 43 44 44 45 45 44 44 45
67 64 62 62 62 62 62 61 61 58 56 54 54 53 55 56 58 58 57 55 57 52 51 51 49 49 47 46 45 44 44 43 41 39 36 37 38 42 42 43 43 43 44

GFSSE_sfc_temp_108.txt.gz
Temp
68 71 81 82 82 82 82 82 82 82 81 81 81 81 81 81 80 80 81 81 81 81 81 81 82 81 81 81 80 80 79 79 79 79 79 79 80 81 81 81 80 80 82
72 74 81 82 82 82 82 82 81 81 81 81 81 81 81 81 80 80 80 80 81 81 81 81 81 81 81 80 80 79 79 78 78 78 77 77 78 80 80 80 81 80 81
74 76 79 82 82 82 82 81 81 81 81 80 80 80 81 80 80 80 80 80 81 81 80 80 80 80 79 79 79 79 78 78 77 76 76 75 77 80 80 80 80 81 81
75 76 78 81 81 81 81 81 81 80 80 80 81 81 80 80 80 80 80 80 80 80 80 80 79 79 79 79 78 78 77 77 76 74 71 72 78 80 80 80 80 80 81
75 76 78 81 81 81 81 80 80 80 80 81 80 80 80 79 79 80 80 79 80 80 80 79 79 78 78 78 77 77 77 76 75 71 68 71 72 80 80 79 79 79 80
72 75 80 81 81 81 81 80 80 81 81 80 80 80 80 80 80 80 79 79 79 79 79 78 78 78 77 77 77 77 76 75 71 67 69 73 73 80 80 79 79 79 79
71 74 78 81 81 80 80 81 80 79 79 79 80 80 80 80 81 80 79 78 78 79 79 78 78 78 77 77 76 76 75 74 66 66 67 72 75 80 80 79 79 79 78
72 75 77 80 80 80 80 80 80 79 79 80 80 80 79 79 79 79 78 78 78 78 79 79 78 77 77 76 75 75 74 71 66 64 66 69 77 79 79 79 79 79 79
72 73 74 75 77 79 79 79 79 79 80 80 79 79 78 78 78 78 78 78 78 78 78 78 77 76 76 75 75 74 73 71 61 63 69 68 77 78 78 77 77 78 79
69 70 68 70 71 71 75 79 79 79 79 78 79 78 77 77 77 77 77 78 78 78 78 78 76 76 75 74 73 72 70 69 61 63 65 72 77 77 77 77 76 76 77
68 66 67 67 68 69 70 74 78 79 78 78 77 77 72 66 67 68 75 78 78 78 78 77 75 74 73 72 71 70 66 59 61 62 65 75 76 77 77 76 76 75 76
67 65 65 66 67 68 73 71 70 72 73 71 67 63 62 62 63 67 72 77 78 77 76 76 73 70 62 55 59 62 58 59 60 62 68 75 76 76 76 75 75 75 75
68 67 67 66 67 68 69 68 67 70 67 65 63 61 60 61 59 58 57 57 57 66 58 60 57 55 55 55 54 55 56 57 58 61 72 74 75 76 75 75 74 74 74
65 67 67 67 68 68 68 67 67 68 64 61 60 60 58 56 55 55 54 54 54 53 54 53 53 54 54 54 52 52 53 55 56 58 67 73 74 75 75 75 74 74 73
66 68 68 68 67 68 69 66 64 64 62 60 59 59 57 55 54 54 53 53 53 53 54 53 53 53 53 53 53 53 52 52 54 56 58 72 73 74 74 74 74 74 73
68 68 69 69 69 69 71 66 64 63 61 61 59 59 58 56 54 54 53 53 53 53 53 53 53 53 52 52 53 53 51 51 53 54 55 60 72 73 74 74 74 74 73
68 69 69 69 70 69 70 67 64 63 62 61 61 59 58 56 56 55 54 53 53 53 54 53 52 52 52 53 50 51 52 51 53 53 54 54 57 69 72 73 73 73 73
69 69 70 72 70 68 69 67 63 63 62 62 61 60 60 58 57 55 54 53 52 53 53 53 52 51 51 51 49 50 51 52 52 52 53 53 53 55 60 70 71 72 73
69 70 69 70 69 68 67 65 61 60 61 61 61 60 59 59 57 55 54 53 53 53 52 54 51 52 51 50 52 50 49 51 51 56 52 53 54 53 53 62 65 66 70
68 67 68 69 69 68 65 60 57 57 58 62 63 63 61 58 57 56 54 53 53 52 51 52 51 49 50 50 57 52 48 49 49 50 51 54 52 53 52 52 50 53 65
66 66 66 67 68 64 61 59 57 58 56 57 61 64 64 63 58 56 55 55 53 53 52 52 50 50 49 48 50 48 48 48 47 48 48 49 51 51 51 51 50 49 51
65 66 67 68 67 66 65 62 59 58 58 58 59 62 62 63 59 58 58 56 57 54 52 51 51 48 47 47 48 46 46 50 48 48 48 50 47 49 50 50 49 49 48
64 65 66 67 67 67 63 60 59 59 58 57 59 60 60 62 61 62 60 58 56 55 53 53 53 53 49 47 47 48 42 43 42 45 45 45 46 45 46 47 48 49 48
65 66 66 67 67 64 62 60 58 59 56 57 56 54 54 56 60 60 60 57 55 53 52 52 53 50 49 47 46 49 44 45 44 43 45 44 44 47 45 46 47 48 47
65 65 66 66 63 61 61 61 59 59 58 56 54 54 53 53 55 60 59 57 53 52 52 52 50 49 48 47 46 44 42 41 41 42 42 43 44 43 44 45 45 45 46
63 65 64 63 62 61 61 60 60 59 56 55 54 53 52 52 53 58 58 55 54 54 53 50 49 49 47 46 45 44 44 43 41 39 38 39 39 42 42 43 43 44 44

GFSSE_sfc_temp_111.txt.gz
Temp
77 80 81 82 82 82 82 82 82 82 82 81 81 81 81 81 81 81 81 81 81 81 81 81 81 81 81 81 80 80 80 80 80 79 79 80 80 81 81 81 82 85 82
80 82 81 82 82 82 82 82 82 81 81 81 81 81 81 81 81 80 81 81 81 81 81 81 81 81 80 80 80 80 79 79 79 78 78 79 79 80 81 80 81 84 82
80 83 84 82 82 82 82 82 81 81 81 80 81 81 81 80 80 80 80 81 81 81 80 80 80 80 80 80 79 79 78 78 78 77 78 84 83 80 81 80 80 81 82
81 84 84 81 82 82 82 81 81 81 80 80 81 81 80 80 80 80 80 81 80 80 80 80 79 79 79 78 78 78 78 77 76 78 82 81 83 80 80 80 80 80 81
81 83 83 81 81 81 81 81 80 80 80 81 81 80 80 80 80 80 80 80 80 80 79 79 78 78 78 78 77 77 77 76 76 79 82 82 82 81 80 80 80 80 80
80 83 82 80 81 81 81 80 80 80 81 81 80 80 80 80 80 80 80 80 80 79 79 78 78 78 78 77 77 77 76 76 77 77 80 82 82 80 80 79 79 79 79
80 82 83 81 81 81 81 80 81 81 80 80 80 80 80 80 80 79 79 79 79 79 79 78 78 77 77 77 76 76 75 75 79 79 80 80 80 79 80 80 79 79 79
80 82 83 81 80 80 81 81 80 80 80 80 80 80 80 81 80 79 78 79 79 79 78 77 77 77 77 76 76 75 74 74 78 78 79 79 78 79 79 79 79 79 79
82 81 83 82 81 79 80 80 80 80 80 80 80 80 79 79 79 78 78 78 79 79 78 77 77 76 76 75 75 75 74 73 78 78 80 80 77 78 78 77 77 78 78
79 80 82 82 83 82 82 79 79 79 80 79 79 78 77 77 77 78 78 78 78 78 77 77 76 75 75 74 74 73 72 74 77 77 79 79 77 78 77 76 77 77 78
75 79 81 80 80 80 81 80 79 79 79 78 77 77 76 74 79 78 77 78 78 78 77 76 75 74 74 73 72 71 73 76 78 79 79 76 77 77 76 76 76 76 76
72 75 79 79 79 79 79 80 79 79 79 81 80 78 78 77 78 79 78 77 77 77 76 75 72 70 71 73 73 72 76 76 77 78 78 75 76 76 76 75 75 75 75
73 72 76 77 78 78 78 77 75 73 74 77 77 76 76 75 75 76 75 75 77 73 75 73 71 72 71 72 72 74 75 76 76 78 76 75 75 76 76 75 74 74 74
72 73 75 76 76 76 76 76 72 73 71 75 74 75 74 72 73 73 73 71 71 71 71 71 70 70 70 72 74 73 74 74 76 77 75 74 75 75 76 75 74 74 74
72 72 74 75 76 75 74 74 71 71 73 74 73 73 73 71 71 70 70 70 70 70 71 70 70 70 71 71 72 73 73 74 75 74 75 73 74 75 75 75 75 74 74
72 72 74 74 76 75 73 74 72 71 73 72 71 72 72 72 71 70 69 68 69 71 70 71 70 70 69 71 69 71 71 71 72 72 73 74 72 74 74 75 75 74 74
72 74 73 74 76 74 72 72 72 71 72 71 71 72 71 70 71 70 69 69 69 70 71 70 70 69 68 69 69 69 69 71 71 71 70 70 71 70 72 73 74 74 74
71 72 72 74 73 74 72 71 71 72 71 71 72 71 70 70 70 69 68 67 67 68 68 69 68 67 68 69 68 68 69 69 70 70 69 69 68 70 69 69 71 72 73
72 71 71 73 71 72 71 69 69 70 71 71 71 70 69 68 68 69 68 67 67 67 68 68 66 69 67 66 67 67 68 68 68 69 69 67 66 66 68 65 65 67 70
70 71 70 70 72 71 69 65 65 67 68 70 70 69 66 65 66 68 67 66 67 66 66 66 67 66 67 67 68 66 66 67 67 68 68 68 67 65 66 65 67 67 66
70 69 70 69 70 68 64 62 62 62 63 66 69 68 65 64 61 65 66 66 66 66 66 67 65 65 64 66 65 64 64 65 65 65 66 67 65 66 66 65 66 66 66
69 68 69 69 68 67 66 65 63 63 63 64 62 63 62 62 61 61 66 65 65 63 62 64 63 62 62 61 63 62 60 63 64 63 63 66 65 66 65 65 65 65 64
68 67 68 69 68 67 66 62 60 61 60 59 59 57 59 61 61 63 64 62 61 63 61 63 62 59 58 57 60 62 57 59 60 63 62 64 64 64 64 64 64 64 64
68 67 68 69 69 67 64 62 61 59 56 57 54 54 54 55 55 58 63 62 62 61 60 61 63 64 64 62 61 62 63 64 62 58 61 61 62 62 62 63 64 63 63
69 67 67 68 68 65 63 64 61 59 57 54 54 53 54 54 55 55 57 61 62 59 62 62 61 62 64 64 62 60 60 60 60 61 59 58 59 59 60 61 62 63 63
68 68 67 66 65 63 62 61 60 56 54 53 53 52 53 54 54 55 56 60 61 62 62 62 62 62 62 63 61 60 60 59 58 57 55 57 57 58 58 60 60 61 61

GFSSE_sfc_temp_114.txt.gz
Temp
85 87 81 82 82 82 82 83 83 83 83 81 81 82 82 81 81 81 82 81 81 81 81 81 82 81 81 81 80 80 80 80 79 80 80 80 80 81 81 82 83 86 81
89 89 81 82 82 82 82 82 82 82 81 81 81 81 81 81 81 81 81 81 81 81 81 81 81 81 80 80 80 79 79 79 80 80 81 80 79 80 81 80 81 84 81
89 91 87 82 82 82 82 82 82 81 81 81 81 81 81 81 80 81 81 81 81 81 80 80 80 80 80 80 79 79 79 79 80 81 81 85 84 80 81 80 80 81 82
91 91 90 81 81 82 82 81 81 81 81 81 81 81 80 80 81 81 81 81 81 80 80 79 79 79 79 78 78 78 78 79 80 82 84 83 85 80 81 80 81 81 81
91 88 89 81 81 81 81 81 81 81 80 81 81 80 80 80 81 80 81 80 80 80 79 79 78 78 78 77 77 78 78 79 80 85 84 81 82 81 80 80 80 80 79
91 91 83 81 81 81 81 81 80 80 81 80 80 80 80 80 81 80 80 80 80 79 79 78 78 78 77 77 77 77 78 80 82 85 85 83 83 80 80 79 79 79 79
91 92 88 81 81 81 80 80 80 81 81 80 80 80 80 80 80 79 80 80 79 79 78 78 78 77 77 77 76 77 77 79 84 80 81 83 82 79 80 79 79 79 79
90 91 89 81 80 80 81 80 81 80 80 80 80 80 80 80 79 79 79 79 78 78 78 78 77 77 77 76 76 76 77 79 84 81 81 80 78 79 79 79 78 79 78
91 90 88 87 83 79 80 80 80 80 80 80 80 80 80 79 79 79 79 79 78 78 77 77 77 76 76 76 76 75 76 77 85 85 85 82 77 78 78 78 78 78 78
91 90 88 88 88 87 86 79 79 79 80 80 80 78 78 78 78 78 79 79 78 77 77 76 76 76 75 75 75 75 77 78 84 83 83 81 77 78 78 77 77 77 78
88 90 86 85 89 87 88 84 80 79 79 79 79 77 79 84 80 82 79 78 78 77 76 76 75 75 74 74 74 75 78 85 84 83 81 76 76 77 77 76 76 76 77
84 87 87 87 89 89 88 87 87 86 83 80 84 85 85 83 85 84 79 77 78 76 76 75 74 74 79 82 80 77 84 84 84 82 80 75 76 76 76 75 75 75 75
83 85 87 88 89 88 87 88 88 87 79 79 84 87 86 85 83 84 81 81 81 78 80 78 77 82 82 82 82 83 84 84 83 81 77 75 76 76 76 75 75 75 74
84 83 85 86 87 87 87 87 85 82 78 83 85 86 84 83 83 83 83 82 81 82 80 81 80 80 80 82 84 83 84 83 83 81 77 74 75 76 76 75 75 74 74
81 82 82 85 86 87 87 85 80 73 80 83 84 84 84 82 82 82 82 81 81 81 81 80 80 80 81 82 83 83 83 83 83 81 78 73 74 75 75 75 75 74 74
82 78 82 83 86 87 85 81 78 75 77 81 82 82 83 82 82 81 80 80 80 81 81 81 80 80 79 81 80 81 80 81 80 80 79 76 73 74 75 75 75 74 74
80 82 82 83 85 86 84 81 78 73 76 80 81 82 82 82 81 80 80 80 80 81 82 81 81 80 79 79 79 79 79 80 79 78 78 78 75 70 72 73 74 74 74
78 81 81 81 82 83 82 79 79 76 76 80 81 81 81 80 81 80 79 79 80 80 79 78 77 77 77 77 77 78 78 78 79 78 77 77 76 77 70 69 71 72 73
77 73 76 79 80 81 76 75 77 78 78 81 82 81 80 80 80 79 78 77 78 77 78 77 77 77 76 76 76 77 78 77 77 78 77 74 72 74 75 66 67 68 70
78 76 76 77 78 79 72 71 71 75 77 80 81 80 80 78 77 77 78 77 77 75 76 76 76 77 77 76 76 75 76 76 76 77 77 77 74 72 74 73 74 70 67
74 74 75 74 77 77 67 65 65 68 73 76 79 79 77 76 71 65 74 73 75 75 75 76 76 73 72 76 73 72 73 77 76 74 75 76 72 73 73 73 75 75 72
75 72 73 73 75 75 70 66 67 65 69 73 74 75 74 74 70 71 68 70 75 75 74 74 72 72 72 73 72 72 67 69 71 72 73 73 73 73 72 73 74 73 72
74 73 74 74 75 73 70 64 62 61 62 63 66 65 66 70 69 62 64 69 74 72 71 71 71 70 68 68 70 70 64 64 69 71 71 72 72 72 73 73 73 72 71
73 72 74 73 74 73 69 65 64 63 60 60 55 54 54 57 57 58 60 63 66 65 65 67 68 69 68 67 69 70 72 72 66 64 69 70 70 71 70 70 70 70 70
77 72 72 68 68 66 65 63 63 60 57 56 53 53 53 54 56 56 56 56 55 59 64 67 69 70 69 69 66 67 67 69 72 67 64 65 66 66 69 69 68 68 69
76 71 69 69 67 65 65 64 60 56 53 52 52 52 53 54 55 57 56 55 55 57 62 64 66 68 70 70 70 70 68 66 67 64 61 64 65 67 67 67 67 67 67

GFSSE_sfc_temp_117.txt.gz
Temp
86 87 80 82 82 82 82 83 83 83 82 82 82 82 81 81 82 81 81 81 80 81 81 81 81 81 81 81 80 81 81 81 81 81 80 80 80 81 81 81 83 84 81
90 88 81 82 82 82 83 83 83 82 81 81 81 81 81 81 81 81 81 80 81 81 81 81 81 81 80 80 80 80 81 82 81 82 81 80 79 80 81 80 81 82 81
91 90 86 82 82 82 83 82 82 81 81 81 81 81 81 81 81 81 81 80 80 80 80 80 80 80 80 80 79 79 80 81 82 81 81 84 82 81 81 80 80 81 81
94 91 88 81 82 82 82 81 81 81 81 81 81 81 81 81 81 81 81 80 80 80 79 79 79 79 79 79 79 79 80 81 81 80 83 83 84 80 81 81 80 81 81
94 92 89 81 81 81 81 81 81 81 81 81 81 80 81 81 80 81 81 80 80 79 79 78 78 78 78 78 78 80 80 81 82 83 82 81 80 80 80 80 80 80 79
94 93 82 81 81 81 81 81 81 80 80 81 80 80 80 81 80 80 80 80 79 79 78 78 78 78 77 77 77 79 80 80 81 85 81 80 80 80 79 79 79 79 79
92 92 87 81 81 81 81 81 80 80 80 80 80 80 80 81 80 80 80 79 79 78 78 78 78 77 77 77 77 79 80 80 80 78 80 79 79 79 79 79 79 79 79
94 92 89 81 80 80 81 80 80 80 80 80 80 80 80 80 79 80 79 78 79 78 78 77 77 77 77 77 77 78 78 80 84 81 80 79 78 79 79 79 78 78 78
95 94 90 87 83 79 80 80 80 80 80 80 79 80 80 79 78 79 79 78 78 77 77 77 77 77 76 76 77 78 78 79 84 83 81 79 77 78 78 78 78 78 78
94 92 87 85 87 85 83 79 79 79 79 80 79 79 78 78 78 79 79 78 78 77 77 76 76 76 76 76 77 78 78 79 83 80 80 78 77 78 78 77 77 78 78
92 93 89 84 86 85 84 82 79 79 79 79 79 77 78 81 81 81 78 77 77 76 76 76 75 75 75 75 76 76 76 83 82 80 78 76 77 77 77 76 76 76 76
88 90 89 85 86 88 89 85 86 85 84 82 82 83 84 84 84 83 78 77 76 76 76 75 75 75 78 81 81 76 84 83 81 78 77 75 76 76 76 76 75 75 75
81 85 85 86 86 90 91 88 88 87 85 80 81 85 86 85 84 83 80 79 78 77 78 77 76 82 83 83 83 85 84 83 81 78 76 75 76 76 76 75 75 75 75
73 77 83 85 89 92 90 89 89 88 83 76 78 85 83 84 84 83 82 82 80 82 81 81 81 81 82 84 85 84 85 82 80 78 75 74 75 76 76 75 75 74 74
80 82 85 86 90 90 89 89 89 82 79 74 76 84 86 83 84 84 84 82 82 82 82 81 81 81 83 84 84 84 83 83 81 77 75 73 74 75 75 75 75 74 74
79 78 85 87 87 89 88 88 86 81 77 76 77 83 85 84 84 83 82 81 81 82 82 82 81 81 81 82 81 82 82 81 80 77 76 73 73 74 75 75 75 75 74
83 82 82 84 89 87 87 87 79 79 79 77 80 84 84 83 84 83 82 80 81 83 83 83 82 82 80 80 80 80 80 80 79 78 76 74 73 70 73 74 74 74 74
83 83 80 82 86 86 87 82 77 78 75 78 82 83 83 83 83 81 81 80 81 81 81 80 79 78 78 78 78 78 78 79 79 78 77 76 75 73 69 70 72 73 73
82 78 77 82 83 84 86 81 75 78 73 77 82 81 81 81 82 81 80 80 81 79 79 78 77 78 76 76 77 77 78 77 77 78 76 74 72 74 71 68 68 69 71
80 72 74 77 81 81 79 79 71 73 73 76 81 80 80 80 81 80 79 79 79 76 77 77 76 77 77 76 78 76 76 76 76 77 77 77 73 72 73 72 68 68 69
74 68 67 69 75 73 75 72 69 68 72 77 80 81 80 79 79 79 78 77 77 75 75 76 76 75 75 77 73 72 73 77 76 75 76 75 73 72 72 72 72 72 67
78 69 68 70 74 75 75 71 69 67 70 76 78 78 76 76 75 74 72 73 69 74 75 75 74 72 73 75 71 70 65 69 73 75 74 74 74 72 72 73 73 72 71
78 73 72 69 75 74 74 69 65 62 62 68 73 73 72 71 71 72 73 72 73 74 73 73 72 71 66 70 73 69 64 62 67 70 71 71 73 72 72 72 73 71 71
80 77 73 70 72 74 71 65 63 61 59 61 60 61 63 68 66 66 64 62 63 61 64 67 67 67 66 63 66 71 71 70 65 61 69 70 71 72 71 70 71 70 69
81 80 75 68 66 66 66 65 65 62 60 59 56 55 54 57 59 58 58 57 56 56 57 59 62 64 65 65 65 66 65 66 68 63 61 63 68 69 70 69 67 66 68
80 75 70 66 64 64 64 65 61 57 55 54 54 53 54 54 55 56 56 55 54 55 56 59 61 62 64 65 65 66 64 62 62 63 61 64 64 66 66 64 64 65 65

GFSSE_sfc_temp_120.txt.gz
Temp
77 78 82 82 82 82 82 82 82 83 82 82 81 81 82 82 81 81 80 80 81 81 81 81 81 81 80 80 81 82 82 82 81 81 80 80 80 81 81 81 81 80 81
81 80 81 82 82 82 83 83 83 82 81 81 81 81 81 81 81 81 80 81 81 81 81 81 81 81 80 80 81 81 82 82 81 81 80 79 78 80 81 80 80 81 81
82 82 82 82 82 82 83 83 82 81 81 81 81 81 81 81 81 81 80 80 80 80 80 80 80 80 80 80 80 81 81 81 80 81 80 77 78 80 80 80 80 81 81
85 83 82 82 82 82 82 82 81 81 81 81 81 81 81 81 81 81 80 80 80 79 79 79 79 79 79 80 80 81 81 81 80 79 78 78 80 80 81 80 80 80 80
86 84 83 81 81 81 81 81 81 81 81 81 80 81 81 81 81 81 80 80 80 79 79 78 78 78 78 79 79 81 81 81 80 79 76 75 75 79 80 80 80 80 80
86 85 80 81 81 81 81 81 81 80 81 80 80 80 81 80 81 81 79 79 79 78 78 78 78 78 78 78 80 80 80 79 78 76 75 76 76 79 79 79 79 79 79
86 81 81 81 81 81 81 80 80 80 80 80 80 80 80 80 80 80 79 79 79 78 78 78 78 77 77 78 79 79 80 79 76 74 74 75 76 79 79 79 79 79 79
83 83 81 81 80 80 80 80 80 80 80 80 79 80 80 80 80 80 78 79 78 78 77 77 77 77 77 78 79 80 80 79 77 74 73 74 77 79 80 79 78 78 79
87 84 81 80 79 79 79 80 80 80 80 79 79 80 79 79 79 78 78 78 78 77 77 77 77 77 77 78 79 80 79 77 75 74 76 74 77 78 79 78 78 78 78
88 84 81 80 79 77 77 78 79 79 79 79 79 78 78 77 78 77 77 77 77 77 77 76 76 76 77 78 78 77 77 76 73 72 73 76 76 78 78 77 77 77 77
86 84 83 81 80 78 78 78 78 79 79 78 78 77 76 73 74 75 76 77 77 76 76 76 76 76 76 76 76 76 76 74 72 70 71 76 77 77 77 76 76 76 77
82 83 81 79 81 80 82 76 76 77 74 74 75 74 73 74 75 77 75 76 76 76 76 76 76 76 76 69 69 73 74 72 71 69 71 75 76 76 76 75 75 75 75
77 79 81 77 80 81 79 78 79 77 75 74 75 76 77 76 75 74 71 70 67 72 67 70 69 68 69 70 70 71 74 71 69 68 73 75 75 76 76 75 75 75 75
70 74 78 78 78 79 79 81 79 78 76 70 75 78 78 75 73 71 69 70 67 66 65 65 66 69 71 73 72 71 73 71 68 65 70 74 75 76 76 75 75 74 74
72 69 72 75 76 74 82 78 77 77 74 74 71 76 77 72 71 71 70 70 67 67 66 66 67 68 68 71 71 70 71 69 66 65 63 73 74 75 75 75 75 74 74
72 70 72 74 77 76 78 77 76 74 71 69 70 75 78 73 71 70 69 68 68 67 67 67 66 66 68 68 68 69 67 69 67 64 63 64 73 74 75 75 75 74 74
75 76 73 70 74 76 81 77 73 72 71 70 71 77 75 73 71 70 68 67 68 68 69 67 67 66 65 69 65 67 67 66 67 65 64 63 63 70 73 74 74 74 74
75 71 69 72 71 78 79 75 74 73 72 70 71 75 74 73 71 69 67 67 68 67 66 65 64 63 63 63 63 63 64 65 65 64 64 62 61 63 66 71 73 73 74
79 71 73 71 72 77 78 74 72 72 70 70 73 72 72 73 71 68 67 66 67 65 64 66 63 63 61 61 65 62 63 62 64 68 62 62 62 60 59 69 70 71 72
74 72 74 73 76 75 74 72 68 69 69 70 73 72 72 70 70 67 67 67 66 64 63 63 63 62 62 62 70 65 62 62 62 61 62 65 62 62 59 59 58 62 70
73 70 69 66 67 68 69 68 67 66 65 69 72 71 70 69 68 67 66 66 65 63 63 64 62 62 60 62 59 58 59 61 62 61 60 60 61 62 61 60 58 57 61
71 66 64 66 64 63 67 68 66 67 66 70 71 69 68 68 67 67 67 65 65 62 64 63 65 59 59 60 57 55 52 56 58 61 60 62 59 61 61 62 61 58 56
71 64 62 63 64 63 67 66 63 63 63 66 67 63 64 66 66 65 65 65 64 63 62 62 63 61 58 60 60 58 53 52 52 57 58 59 59 58 59 61 61 61 58
70 65 64 65 64 65 68 64 64 63 61 60 56 57 60 63 63 63 61 61 60 61 60 62 62 61 60 59 60 64 61 59 54 52 57 58 60 61 58 58 58 59 59
73 68 66 64 63 64 64 65 62 61 58 57 57 55 54 55 56 57 57 59 59 58 59 60 60 60 60 59 58 58 58 58 58 53 51 55 55 57 57 57 58 57 59
69 67 62 64 62 63 63 61 60 57 56 55 54 54 53 53 54 55 55 54 54 55 56 56 57 59 59 59 59 59 57 56 55 52 51 52 53 55 56 58 57 56 57

GFSSE_sfc_temp_123.txt.gz
Temp
73 77 82 82 82 82 82 82 82 82 81 81 81 82 81 81 81 80 81 81 81 81 81 82 81 81 81 82 82 82 82 81 81 80 80 80 80 81 81 80 80 80 81
76 79 81 82 82 82 83 82 82 82 81 81 81 81 81 81 81 80 80 81 81 81 81 81 81 81 81 82 82 82 81 81 80 80 79 78 79 80 81 80 80 80 81
77 80 81 82 82 82 82 82 82 81 81 81 81 81 81 81 80 81 80 80 80 80 80 80 80 80 81 81 81 81 81 80 79 79 78 76 77 80 80 80 80 81 81
79 80 80 81 82 82 82 82 81 81 81 81 81 81 81 81 80 80 80 80 79 79 79 79 79 79 80 80 81 80 80 79 78 77 76 76 80 81 81 81 80 80 80
79 80 81 81 81 82 82 81 81 81 81 81 81 81 81 81 81 80 80 80 79 79 78 78 78 79 79 80 80 80 79 78 77 76 75 74 77 80 80 80 79 79 79
78 80 80 81 81 81 81 81 81 80 80 80 80 81 81 81 81 80 80 79 78 78 78 78 78 78 79 79 80 79 78 77 75 73 74 76 75 80 80 79 79 79 79
79 79 80 81 81 81 81 81 80 80 80 80 80 80 80 80 79 79 79 79 78 78 78 78 78 78 79 79 80 79 78 76 73 73 73 74 75 78 79 79 79 79 79
78 79 80 80 80 80 80 80 80 80 80 80 80 80 80 80 79 79 79 79 78 77 77 77 77 78 79 80 80 79 77 76 73 71 71 74 77 79 79 79 78 78 78
79 78 78 78 79 79 80 80 80 80 80 79 79 80 79 79 78 78 78 78 77 77 77 77 77 78 79 79 78 77 76 74 69 71 74 73 77 78 78 78 78 78 78
77 77 75 76 77 76 77 79 79 79 79 79 79 78 78 78 77 77 78 77 77 77 77 77 77 77 78 78 78 76 75 73 69 69 73 74 77 78 77 77 77 77 78
74 75 74 74 74 74 75 77 78 79 79 78 77 77 76 72 73 73 76 76 77 76 76 76 77 77 76 77 76 75 73 69 68 67 71 75 76 77 77 77 76 77 77
71 74 75 74 74 74 78 74 72 76 72 70 72 72 71 71 72 74 75 76 76 76 76 77 76 76 73 66 72 72 69 66 65 66 72 75 76 76 76 76 75 75 75
69 72 77 75 74 74 75 74 73 72 69 69 71 70 71 73 72 70 68 66 65 71 66 69 68 66 65 67 67 69 68 65 62 65 73 75 75 76 76 75 75 75 75
69 70 73 75 75 75 73 74 73 72 69 67 72 70 72 71 69 67 66 63 62 61 61 62 62 64 65 69 69 67 67 64 62 63 71 74 75 75 75 75 75 74 74
69 70 70 71 71 71 71 75 74 73 71 71 68 73 75 71 69 67 65 63 62 61 61 61 61 64 66 67 69 67 64 62 60 61 62 73 74 75 75 75 75 74 74
70 68 70 71 70 71 70 74 75 74 70 69 68 74 77 72 69 68 67 64 62 62 62 63 64 63 63 69 67 67 64 63 60 61 61 64 73 74 75 75 75 74 74
69 69 69 70 71 69 70 71 74 73 70 69 72 73 75 69 68 66 66 64 64 64 65 64 62 63 63 65 61 63 63 60 61 60 60 60 62 71 73 74 74 74 74
70 67 70 71 71 69 67 73 73 70 70 68 70 73 75 70 68 66 66 64 63 63 62 62 61 61 60 60 59 61 62 61 59 59 60 59 59 61 67 72 73 74 73
71 70 71 70 68 68 71 72 71 70 69 68 72 72 73 70 68 67 65 63 63 62 61 63 60 61 58 58 61 58 58 58 59 63 58 58 58 57 58 70 71 72 73
70 70 69 67 66 66 68 70 68 68 67 69 71 69 72 67 66 65 63 63 62 61 60 61 61 59 58 59 67 61 57 57 57 57 58 61 58 57 57 58 57 62 71
67 65 66 65 65 64 64 66 65 65 65 66 71 69 69 66 65 63 61 62 62 62 62 63 60 60 57 56 56 55 55 56 57 57 56 56 58 58 56 56 55 55 60
64 66 67 64 65 64 63 62 64 65 64 64 68 69 69 66 64 64 62 62 63 61 63 63 62 57 56 55 54 51 50 55 55 56 54 58 56 57 58 58 55 55 55
62 64 64 62 63 63 62 62 63 62 62 62 63 62 63 63 64 62 62 62 62 61 62 62 62 61 56 55 58 55 50 50 49 54 54 55 55 54 55 57 56 56 54
63 61 62 61 62 62 62 63 63 62 60 59 57 57 57 58 58 59 60 60 60 60 61 61 62 61 60 58 58 62 60 58 51 51 53 56 55 57 56 55 55 55 54
64 60 61 61 61 61 62 60 62 60 57 57 55 55 54 54 56 56 57 57 58 59 61 62 60 59 59 58 57 58 57 55 53 49 48 52 53 53 54 55 53 53 54
62 63 62 61 59 59 60 60 59 58 57 56 56 55 54 54 53 55 55 54 54 55 57 58 58 58 58 59 58 57 56 55 51 49 47 49 49 52 51 52 54 53 53

GFSSE_sfc_temp_129.txt.gz
Temp
69 75 81 82 82 82 82 81 82 82 81 81 81 81 80 81 81 81 81 81 81 81 81 81 82 81 81 81 81 81 81 80 80 80 80 80 80 81 81 80 80 79 81
73 76 81 82 82 82 82 82 82 81 81 81 81 81 80 81 81 81 81 81 80 82 81 81 81 82 81 81 80 80 80 80 79 79 78 78 79 80 80 80 80 80 81
75 77 80 81 82 82 82 82 82 81 81 81 81 81 80 81 81 80 80 80 81 81 80 80 80 80 80 80 80 79 80 79 79 80 79 75 77 80 80 80 80 81 81
77 78 79 81 81 82 82 81 81 81 81 81 81 81 80 80 81 80 80 80 80 79 79 80 80 80 80 79 79 79 79 79 78 77 77 78 79 80 80 80 80 80 80
77 78 79 81 81 81 81 81 81 81 81 81 81 81 80 80 80 80 80 80 80 79 79 79 79 79 79 79 78 78 78 77 76 74 72 71 74 79 80 79 79 79 79
75 75 78 81 81 81 80 81 81 80 81 80 81 80 80 80 80 80 79 79 79 79 79 79 79 79 78 78 78 78 77 76 74 73 72 74 75 80 80 79 79 79 79
74 75 78 80 81 80 80 81 81 80 80 80 80 80 80 80 80 79 79 78 78 79 79 79 79 79 78 78 77 77 77 75 71 70 70 72 75 79 80 79 79 79 79
74 76 77 80 80 80 80 80 80 80 80 80 80 80 80 80 80 79 78 78 78 79 79 79 79 78 78 77 77 76 75 74 71 70 70 72 77 79 79 79 79 79 78
75 75 74 75 78 79 79 80 80 80 80 80 80 79 79 79 79 78 78 78 78 78 78 79 78 78 77 77 76 75 74 73 67 69 73 73 77 79 78 78 78 78 78
70 73 68 68 73 73 75 78 79 79 79 79 79 78 78 78 78 78 77 77 78 78 78 78 78 77 77 76 75 74 73 71 65 67 69 74 77 78 77 77 77 77 78
68 68 66 67 66 70 71 74 77 79 79 78 78 77 76 72 75 74 75 77 78 77 78 77 77 76 75 75 74 73 70 64 66 66 71 76 77 77 77 76 76 77 77
66 66 64 64 65 65 74 72 70 74 74 71 71 70 68 68 70 72 74 76 77 77 77 77 76 74 69 64 66 67 63 63 64 65 71 75 76 76 76 76 75 75 75
65 65 64 63 65 64 68 69 68 67 69 69 68 68 68 69 69 67 66 67 65 72 67 67 65 62 61 63 61 61 62 61 61 64 72 75 75 76 76 75 75 75 75
63 65 64 64 64 65 67 69 69 70 69 68 68 68 68 65 64 63 62 60 60 60 60 60 61 60 61 60 58 58 59 59 60 62 71 74 75 75 75 75 75 74 74
62 63 62 64 64 67 69 69 68 69 69 68 67 68 68 66 63 61 60 58 58 59 59 59 60 61 60 59 59 58 58 58 59 61 63 73 74 75 75 75 75 74 74
63 62 64 65 67 65 65 67 67 68 69 68 67 68 68 66 64 61 58 58 58 58 59 59 63 62 59 59 59 58 57 58 58 59 60 65 73 74 75 75 74 74 74
63 63 64 66 66 66 67 66 66 65 68 67 68 68 68 66 65 61 58 57 57 58 59 59 59 61 59 60 56 57 58 56 57 58 59 59 62 72 73 74 74 74 74
63 65 67 68 66 66 66 65 66 66 66 68 68 69 69 68 67 63 60 58 57 58 58 60 61 59 56 57 54 56 56 57 57 57 58 58 58 60 67 72 73 73 73
63 67 65 67 66 66 66 65 65 66 67 67 68 68 69 69 68 66 62 58 58 57 57 61 56 60 56 54 56 54 55 56 56 59 56 57 58 58 58 69 71 72 72
62 65 66 67 68 67 66 66 66 66 66 65 66 64 68 67 68 65 60 59 58 56 56 56 58 55 57 57 62 55 53 53 54 54 55 58 56 57 57 57 57 61 71
60 64 65 65 67 66 65 64 65 64 65 63 64 65 65 67 66 64 59 58 57 59 58 58 55 57 54 55 54 53 54 53 52 52 52 53 54 54 54 54 55 55 60
58 63 62 64 64 65 65 66 64 65 64 62 62 62 63 64 65 63 61 58 58 56 57 58 58 54 53 53 52 51 50 54 52 53 50 53 52 53 53 54 53 53 53
57 63 62 62 62 63 63 64 63 62 61 59 59 58 58 61 59 61 60 59 58 59 58 57 57 56 52 52 54 53 49 49 48 49 49 50 51 50 51 52 53 53 52
57 62 64 63 62 63 62 62 63 60 57 55 55 55 54 57 56 55 60 59 59 57 59 57 58 56 55 53 55 60 58 56 53 50 50 50 54 55 53 50 52 52 52
58 61 61 60 59 59 61 61 60 59 57 55 55 54 55 54 55 56 57 57 57 55 56 58 56 56 56 55 54 56 56 55 55 54 51 53 54 54 54 52 52 51 51
61 61 60 58 57 58 60 59 59 57 56 55 53 52 52 53 53 54 55 53 53 55 58 58 59 59 58 57 57 56 55 54 53 52 51 51 51 52 49 47 48 48 50

GFSSE_sfc_temp_132.txt.gz
Temp
68 75 81 82 82 82 82 82 82 82 82 81 81 81 81 81 81 81 81 81 81 81 81 81 81 81 81 81 81 81 81 81 80 80 80 80 80 81 81 80 80 79 81
70 75 81 82 82 82 82 82 82 82 81 81 81 81 81 81 81 81 81 81 81 81 81 82 81 81 81 81 81 81 81 80 80 79 78 78 79 80 80 80 80 80 81
72 76 79 81 82 82 82 82 82 81 81 81 81 80 81 81 81 81 80 81 81 81 81 81 80 81 81 80 80 80 80 80 80 79 78 75 77 81 81 80 80 81 81
75 76 77 81 81 82 81 81 81 81 81 81 81 81 81 81 80 81 81 80 80 80 80 80 80 80 80 79 79 80 80 80 78 77 74 74 79 80 80 80 80 80 80
75 75 77 81 80 81 81 81 81 81 81 81 80 81 81 81 81 80 80 80 80 80 80 79 79 79 79 79 79 79 78 78 76 74 71 72 74 79 80 79 79 79 79
72 74 78 80 80 81 81 80 81 81 81 81 81 81 80 81 81 80 80 80 79 79 79 79 78 79 78 78 78 78 77 77 75 71 71 75 74 80 80 79 78 79 79
73 74 76 80 81 80 80 80 80 80 80 80 80 80 80 80 80 80 79 79 79 80 79 79 79 78 78 78 78 77 77 75 70 70 70 73 75 80 80 79 79 79 79
74 76 76 79 79 80 80 80 80 80 80 80 80 80 80 80 80 79 79 79 79 79 79 79 79 79 78 77 77 76 75 74 71 70 70 73 77 79 80 79 79 78 78
74 75 71 71 75 78 79 79 80 80 80 80 80 79 79 80 79 78 78 79 79 79 79 78 78 78 77 77 76 76 75 73 68 69 73 73 78 79 78 78 78 78 78
70 69 68 67 68 68 71 78 78 79 79 80 79 78 77 78 78 78 78 78 78 79 78 78 78 77 76 76 75 75 73 71 66 68 71 74 76 78 78 78 78 77 76
69 67 67 66 67 66 68 70 77 78 79 79 78 77 76 70 74 72 75 77 78 78 77 78 77 76 75 74 74 72 69 64 67 68 72 76 77 77 77 76 76 76 76
65 66 65 65 66 66 68 67 68 71 74 72 71 71 69 70 71 71 74 77 77 77 77 77 76 73 67 62 65 67 62 63 64 65 72 76 77 77 76 76 75 75 75
65 64 64 65 67 67 66 65 64 68 68 69 69 69 68 71 70 67 68 66 66 71 65 66 62 60 59 61 60 60 61 61 61 64 73 75 76 76 76 75 75 75 75
62 64 64 64 64 65 65 64 64 68 69 69 69 68 68 67 65 64 66 61 60 66 59 59 58 58 58 58 58 58 59 59 60 62 72 74 75 76 76 75 75 74 74
60 63 62 63 63 65 65 66 66 68 69 70 68 69 69 66 64 62 60 58 58 62 59 57 58 59 57 57 58 58 58 58 60 61 64 73 74 75 75 75 75 74 74
59 61 62 63 65 66 66 65 67 69 69 68 68 68 68 67 65 62 59 58 58 59 57 59 60 58 56 57 57 58 57 58 58 60 61 66 73 74 75 75 75 74 74
57 61 62 64 66 64 66 63 64 66 67 67 67 68 68 66 64 62 60 59 57 57 58 58 57 57 57 58 55 56 57 56 58 58 59 60 63 72 73 74 74 74 73
58 59 63 67 66 65 65 63 64 65 65 67 66 68 67 66 65 62 60 59 57 58 59 61 60 55 55 55 54 55 55 56 56 57 58 58 59 60 68 72 73 73 73
59 59 62 64 65 65 65 64 64 64 65 66 65 66 67 66 66 63 61 59 58 58 59 61 56 59 56 54 55 53 53 54 55 59 56 58 58 58 59 70 71 72 72
59 59 64 65 65 65 64 64 63 64 65 65 65 64 65 65 66 65 61 59 58 57 56 58 58 54 56 56 59 53 51 52 53 53 54 57 56 56 56 57 57 62 71
59 62 63 63 64 65 63 62 61 61 64 65 64 63 62 64 64 62 61 57 56 58 58 59 56 57 53 53 52 51 52 52 52 51 52 52 54 54 55 55 55 56 61
58 64 64 65 65 65 65 64 64 64 64 62 61 60 62 64 63 61 61 57 56 55 56 58 58 53 52 53 52 50 48 52 52 54 53 53 52 52 54 55 54 55 54
57 63 62 64 66 66 66 64 62 61 60 59 58 57 57 61 61 63 62 60 56 57 57 57 57 55 52 52 54 53 46 47 51 54 53 52 51 50 51 52 53 54 53
57 62 63 62 63 63 65 64 62 61 58 57 56 56 55 57 57 58 60 57 56 54 55 57 58 56 57 55 54 56 53 55 53 51 54 54 54 55 53 52 54 53 52
60 60 60 60 60 61 62 63 61 59 58 58 55 54 54 55 56 54 56 59 55 53 55 56 55 54 54 53 54 54 55 55 55 54 50 52 52 51 54 54 51 51 51
60 59 59 58 58 60 60 60 59 57 56 54 55 54 53 53 53 54 55 55 54 56 54 53 54 57 58 57 57 56 56 55 53 53 51 51 52 53 52 51 49 49 49

GFSSE_sfc_temp_138.txt.gz
Temp
86 88 81 82 82 82 82 82 82 82 82 82 82 82 82 82 81 81 81 81 81 81 82 82 82 82 82 82 82 81 81 81 81 81 80 80 80 81 81 81 82 85 81
90 90 81 82 82 82 83 82 82 82 81 81 81 81 81 82 81 81 81 81 81 81 81 81 82 81 82 82 81 81 81 80 81 81 80 79 79 80 81 80 80 83 81
89 91 85 82 82 82 82 82 82 82 81 81 81 81 81 81 81 81 81 81 80 81 81 81 81 81 81 81 80 80 80 80 81 82 82 87 85 81 81 80 80 81 81
91 91 87 82 82 82 82 82 82 81 81 81 81 81 81 81 81 81 81 81 81 81 81 81 80 80 81 80 80 80 79 80 81 82 90 89 87 80 81 80 80 81 81
91 91 85 81 81 81 81 81 81 81 81 81 81 81 81 81 81 81 81 81 80 80 80 80 80 80 80 80 79 79 79 80 81 86 87 83 85 82 80 80 80 80 79
92 93 83 80 81 81 81 81 81 81 81 81 81 81 81 81 81 80 81 80 80 79 80 79 79 80 79 79 79 79 80 81 82 87 86 84 83 80 79 79 79 79 79
92 93 87 80 81 80 81 81 81 81 81 80 81 81 81 81 81 80 80 79 79 79 79 79 79 79 79 78 78 78 79 80 83 83 83 84 82 80 80 79 79 79 78
91 91 87 81 80 80 80 81 81 81 80 80 80 81 81 81 81 80 79 79 79 79 79 79 78 78 78 78 77 78 79 80 84 84 83 81 79 79 79 79 78 78 78
90 90 87 85 83 79 79 80 80 80 80 80 80 80 80 80 80 80 80 80 79 79 79 78 78 78 78 77 77 77 78 78 87 87 85 82 77 78 78 78 78 78 77
87 87 82 82 82 84 83 78 79 79 80 80 79 79 79 79 79 79 79 79 78 79 78 78 78 77 77 77 76 77 77 79 86 84 83 79 78 78 78 77 77 77 77
78 83 83 83 82 80 83 82 79 78 77 78 78 77 80 82 83 82 80 78 78 78 78 77 77 76 75 75 75 76 78 86 86 84 82 77 77 78 77 77 77 76 76
73 77 82 83 82 80 76 75 75 75 71 72 80 82 82 83 86 86 80 77 77 78 77 77 76 75 79 83 81 78 85 85 85 83 80 76 77 77 77 76 76 76 76
80 75 78 80 81 80 79 76 72 67 66 69 72 77 81 78 82 85 83 81 81 78 80 80 78 84 83 84 83 85 85 86 85 83 77 75 76 76 76 76 75 75 75
79 79 79 78 79 81 81 80 77 71 66 66 69 72 72 74 78 83 83 82 82 85 81 82 82 81 82 83 85 84 85 85 84 82 77 75 76 76 76 75 75 75 75
78 78 79 80 77 77 77 80 80 76 70 71 66 66 68 72 73 79 82 82 81 83 82 81 80 81 82 83 84 84 84 85 84 82 79 74 75 75 76 76 75 75 74
79 77 78 78 78 78 75 77 79 80 77 75 70 71 72 71 73 78 79 80 80 80 79 78 78 78 79 81 81 82 82 82 83 81 80 77 74 75 75 75 75 75 74
79 78 76 75 78 77 77 78 76 77 76 73 72 74 75 76 73 77 79 76 78 82 81 81 80 80 79 80 79 80 80 81 81 81 80 79 77 72 74 74 74 74 74
78 77 77 77 77 77 78 75 73 76 72 71 71 73 74 74 74 76 78 75 80 80 80 78 78 77 77 78 78 78 78 79 80 79 79 79 79 78 73 73 74 74 74
75 76 75 76 76 77 73 77 77 74 75 69 69 70 72 71 73 74 71 76 77 78 78 77 77 76 73 76 76 77 78 78 78 79 78 77 76 78 77 71 72 72 73
73 73 73 74 76 75 73 76 75 72 72 69 67 69 68 68 71 72 70 75 75 76 74 76 75 77 75 75 75 75 76 76 77 78 78 78 75 75 76 76 76 74 72
69 70 72 72 75 72 68 74 71 72 71 65 67 69 69 67 68 71 71 75 75 74 74 75 74 73 72 76 72 71 73 76 76 75 77 77 74 76 76 76 78 78 74
69 70 71 71 72 69 71 75 74 73 69 69 65 66 69 67 67 69 72 74 73 74 73 73 72 70 72 74 71 71 65 69 74 75 76 76 76 76 76 77 78 76 76
66 67 67 67 69 69 72 73 69 64 61 60 61 63 67 66 63 71 71 69 70 73 72 72 73 72 69 73 77 74 66 66 69 73 74 75 74 73 75 75 74 75 76
63 67 68 67 67 72 71 73 67 62 59 59 58 59 61 64 62 67 72 74 71 74 74 73 74 73 72 69 73 75 77 77 68 64 71 72 71 72 70 70 73 74 75
63 65 67 69 67 70 70 71 67 60 59 58 58 58 59 59 59 58 66 71 73 76 76 75 74 75 75 73 72 72 72 73 76 71 66 67 69 69 63 66 72 71 73
62 63 64 63 62 65 65 65 63 60 58 57 58 57 58 59 58 55 58 60 65 68 74 73 75 76 76 76 75 74 72 70 71 70 69 68 67 59 61 62 62 59 61

GFSSE_sfc_temp_141.txt.gz
Temp
88 87 81 82 82 82 82 82 82 82 82 82 82 82 82 81 81 81 81 81 81 82 82 82 82 82 82 82 82 81 81 81 81 80 80 80 80 81 81 80 82 83 81
92 90 81 82 82 82 82 82 82 82 81 81 81 81 82 81 81 81 81 81 81 81 81 81 81 81 81 81 81 81 81 82 81 80 80 79 79 80 81 80 80 82 81
92 88 85 81 82 82 82 82 82 81 81 81 81 81 82 81 81 81 80 80 81 81 81 81 81 81 81 81 80 80 81 81 82 83 82 85 82 81 81 80 80 81 81
94 88 86 81 82 82 82 82 82 81 81 81 81 81 81 81 81 81 80 80 80 80 80 80 80 80 80 80 80 80 81 82 82 81 84 85 84 80 81 80 80 80 80
94 89 86 81 81 82 82 82 81 81 81 81 81 81 81 81 81 81 81 80 80 80 80 80 80 80 80 79 79 81 81 82 82 84 81 81 81 80 80 80 80 79 79
95 92 84 81 81 81 81 81 81 81 81 81 81 81 81 81 81 81 80 80 80 80 79 79 79 79 79 79 80 81 81 82 83 86 83 80 79 80 79 79 78 79 79
95 93 86 81 81 81 81 81 81 81 80 81 81 81 81 81 80 80 80 79 79 79 79 79 79 79 79 79 79 80 81 81 82 83 81 81 79 79 80 79 79 79 79
95 95 89 81 80 80 81 81 81 80 80 80 80 80 80 81 80 79 79 79 79 79 79 79 78 78 78 78 79 79 80 81 83 80 79 79 78 79 79 78 78 78 78
94 94 89 84 83 79 79 80 80 80 80 80 80 80 80 80 80 79 79 79 79 79 78 78 78 78 78 78 78 79 79 79 83 82 81 80 77 78 78 78 77 78 77
90 92 87 86 83 84 83 79 79 78 79 79 79 80 79 79 79 79 79 79 79 79 78 78 77 78 77 77 78 79 79 80 83 81 80 78 78 78 78 77 77 76 76
82 86 85 84 84 84 83 83 79 78 78 78 78 77 78 80 82 80 80 78 78 78 78 77 76 77 76 76 77 77 77 85 83 81 79 77 77 78 77 77 76 76 76
74 78 84 85 82 82 81 80 80 79 71 74 74 78 80 82 84 84 80 77 78 77 77 77 76 75 79 80 78 76 82 85 82 79 76 77 77 77 77 76 76 76 76
83 80 79 82 83 80 78 74 70 70 70 67 69 70 74 75 80 81 80 80 76 77 79 79 78 82 85 83 79 86 86 85 82 79 75 76 76 77 76 76 75 75 75
83 83 81 80 78 79 78 78 73 69 69 66 67 67 66 69 76 78 80 81 75 80 81 82 83 83 84 85 86 85 86 83 81 78 75 75 76 76 76 76 75 75 75
82 82 82 81 79 79 78 77 75 72 69 72 69 68 67 63 65 69 71 74 80 80 79 83 82 82 83 85 85 85 85 84 81 78 74 73 75 75 76 76 75 75 74
84 83 82 82 81 79 77 78 77 77 76 71 72 71 69 64 67 70 69 71 75 82 81 81 81 81 82 84 82 83 83 82 80 78 76 74 74 75 75 75 75 75 74
84 84 82 80 79 78 74 77 78 78 79 76 72 72 72 70 70 72 74 72 77 81 80 79 79 78 77 79 78 80 80 82 80 78 77 75 74 72 73 74 74 74 74
82 82 83 82 80 79 77 74 78 79 78 79 77 73 73 72 73 74 75 77 79 76 80 79 78 77 77 78 78 79 80 80 81 80 78 77 75 75 72 73 74 74 74
79 79 80 81 80 79 80 76 75 75 78 76 73 71 73 74 74 72 75 76 77 74 79 78 77 78 76 76 76 77 78 78 78 79 78 77 76 75 73 71 71 72 73
76 76 77 78 79 80 79 76 76 76 78 78 73 72 72 73 73 73 73 74 74 72 76 77 76 77 76 75 77 75 76 76 78 78 77 77 75 75 74 72 72 71 72
75 72 73 74 77 78 71 72 73 73 76 72 71 69 70 70 72 69 70 72 70 71 75 75 76 74 73 75 72 72 73 76 77 77 77 76 74 75 75 74 75 73 71
74 72 72 74 75 77 72 73 74 74 73 68 66 66 67 67 69 70 68 71 71 71 71 74 73 71 72 73 69 68 64 69 74 75 76 76 75 75 75 76 76 75 74
67 72 72 73 75 75 70 70 65 68 66 63 63 63 64 67 66 68 72 73 72 71 70 72 72 71 68 72 75 70 64 64 67 73 74 74 75 73 75 74 74 74 74
62 66 68 71 72 72 69 66 69 67 63 61 60 62 61 62 63 66 71 70 73 71 72 70 73 72 71 68 73 77 77 76 66 62 71 73 74 73 72 71 73 74 74
63 64 65 67 67 67 68 68 67 63 59 59 59 59 60 59 59 62 68 69 71 72 72 73 73 74 73 72 71 71 72 74 76 69 63 66 70 70 70 69 68 70 68
63 63 63 63 64 69 70 70 65 60 59 57 58 57 57 57 57 57 61 65 70 70 70 73 75 74 74 74 73 72 71 69 69 69 68 67 65 65 66 63 59 59 61

GFSSE_sfc_temp_144.txt.gz
Temp
78 79 82 82 82 82 82 83 82 83 82 82 82 82 82 81 81 81 81 81 81 81 81 82 82 82 82 82 82 81 82 81 81 80 80 80 80 81 81 80 80 80 81
83 82 82 82 82 82 82 82 82 82 81 81 81 81 81 81 81 81 81 81 81 81 81 81 81 82 82 81 81 82 82 82 82 81 80 79 79 80 81 80 80 80 81
85 83 82 81 82 82 82 82 82 81 81 81 81 81 81 81 81 80 81 81 80 81 81 81 81 81 81 81 81 81 82 81 82 82 80 78 78 80 81 80 80 80 81
87 82 82 81 81 82 82 82 82 81 81 81 81 81 81 81 81 80 81 81 80 81 81 80 80 80 80 80 81 81 82 81 80 79 78 78 81 80 80 80 80 80 80
86 84 83 81 81 81 81 81 81 81 81 81 81 81 81 81 80 80 80 81 80 80 80 80 80 80 79 80 80 81 82 81 80 79 76 75 76 79 79 79 79 79 79
85 85 80 81 81 81 81 81 81 81 81 81 81 81 81 81 80 80 80 80 79 80 79 79 79 79 79 80 80 81 81 81 79 77 76 76 76 79 79 79 78 78 79
86 85 81 81 81 81 81 81 81 80 80 80 80 81 81 81 81 80 80 79 79 79 79 79 80 79 79 80 80 80 80 79 76 75 75 75 77 79 79 79 79 79 78
87 85 82 81 80 80 81 81 81 80 80 80 80 80 81 80 80 79 79 79 79 79 79 79 78 79 79 79 80 80 80 79 77 74 74 74 77 79 79 78 78 78 78
87 85 81 79 80 79 79 80 80 80 79 80 80 80 80 79 78 79 79 79 79 78 78 78 78 78 78 79 79 81 79 78 75 77 76 73 77 78 78 78 77 77 77
81 81 78 78 78 77 77 78 79 79 79 79 79 79 79 79 78 78 78 79 78 78 78 78 78 78 78 79 78 78 78 77 74 74 76 76 78 78 78 78 77 77 76
77 78 77 77 76 76 76 75 77 78 78 77 77 77 77 73 74 76 77 78 78 78 78 77 78 76 77 77 78 78 78 76 73 75 75 77 77 78 77 77 77 76 76
70 73 76 78 75 75 76 73 73 72 69 70 72 73 72 75 74 78 76 76 77 77 77 77 76 76 77 73 75 76 77 74 72 74 75 76 77 77 77 76 76 76 76
74 73 75 75 76 74 73 69 68 70 69 68 68 68 67 68 65 70 71 72 69 74 73 72 72 72 71 75 74 76 76 73 72 74 74 76 76 76 76 76 75 75 75
73 73 74 75 75 74 72 70 68 68 68 67 67 68 65 64 65 67 68 70 68 68 70 70 69 71 76 76 76 75 74 71 70 69 73 75 76 76 76 76 75 75 75
71 74 74 74 74 75 72 70 67 68 67 67 67 67 65 64 63 64 65 68 70 70 73 70 70 71 72 72 77 78 74 71 69 73 70 74 75 75 76 76 75 75 74
74 74 74 75 74 73 71 70 69 67 68 66 67 66 66 64 65 64 63 66 67 70 73 71 70 69 71 75 72 77 75 71 70 66 66 72 74 75 75 75 75 75 74
73 74 74 73 74 71 71 73 70 69 69 68 70 68 66 64 64 65 66 66 67 74 72 71 69 69 69 71 69 71 73 71 70 68 68 66 67 72 74 74 74 74 74
72 73 74 77 73 71 70 70 69 72 69 68 67 67 68 65 64 65 68 66 67 73 72 68 67 67 67 68 68 68 69 73 71 70 69 66 64 66 70 73 74 74 74
71 71 70 71 72 71 71 70 71 71 70 69 68 67 68 68 68 67 70 68 68 72 72 72 67 67 66 65 68 67 67 67 69 71 67 66 65 64 63 71 71 72 73
71 71 69 69 70 71 69 68 70 69 70 69 67 67 67 67 69 68 66 67 68 68 69 70 68 67 65 65 72 66 64 64 66 65 66 69 66 64 63 63 62 66 72
68 68 66 66 67 67 66 66 68 67 68 66 67 68 68 68 69 67 67 66 69 69 68 70 67 65 64 65 62 60 62 64 64 64 64 64 65 64 63 62 61 61 65
64 67 65 65 66 67 65 67 68 66 66 64 65 66 67 67 68 67 68 66 69 68 69 68 66 62 63 63 58 57 53 58 61 65 62 65 62 63 64 65 63 61 60
61 61 65 66 67 67 65 66 64 64 63 63 63 63 64 66 67 68 67 67 68 69 68 67 65 64 61 60 63 58 54 53 56 59 60 61 61 61 60 63 64 65 61
60 63 65 66 67 66 65 63 63 63 59 61 60 62 61 63 63 65 67 66 67 67 68 67 67 65 64 59 63 67 62 60 53 52 57 59 60 62 59 60 60 61 60
61 62 63 65 66 64 64 65 63 60 59 59 60 60 60 59 61 62 63 67 68 66 69 69 67 66 64 61 60 59 60 60 59 55 50 53 57 57 57 56 56 55 57
61 61 61 61 62 63 63 64 60 58 58 57 58 58 58 57 56 59 62 63 64 64 67 67 68 66 65 63 62 61 59 57 57 57 53 52 52 52 51 52 51 52 55

GFSSE_sfc_temp_147.txt.gz
Temp
74 78 81 82 82 82 82 83 83 82 82 82 81 82 81 81 81 81 81 81 81 81 82 82 82 82 82 82 82 82 81 81 80 80 80 80 80 80 80 80 80 79 80
77 80 81 82 82 82 83 82 82 82 81 81 81 81 81 81 81 81 81 81 81 81 81 81 82 82 82 82 82 82 82 81 80 79 79 79 79 80 80 80 80 80 80
78 80 81 82 82 82 82 82 82 81 81 81 81 81 81 81 81 81 81 81 81 81 81 81 81 81 81 82 82 81 80 80 79 79 79 77 78 80 80 80 80 80 80
80 80 80 81 81 82 82 82 81 81 81 81 81 81 81 81 80 81 81 80 81 81 80 80 80 80 81 81 81 80 80 79 78 78 76 77 79 80 80 80 80 80 80
80 80 80 81 81 81 81 81 81 81 81 81 81 81 80 80 81 81 81 81 80 80 80 80 80 80 80 81 81 80 79 79 77 76 76 76 77 79 79 79 79 79 79
78 80 80 81 81 81 81 81 81 81 80 80 81 81 81 80 80 80 80 80 80 79 79 79 79 80 80 80 79 79 79 78 76 73 73 76 76 80 80 78 78 78 79
79 80 80 81 81 81 81 81 81 80 80 80 80 80 81 80 80 80 80 80 79 79 79 79 80 80 80 80 79 79 78 76 73 72 72 75 76 79 80 79 78 78 79
80 79 80 81 81 81 81 81 80 80 80 80 80 80 80 80 80 79 79 79 79 79 79 80 79 80 80 79 79 79 77 76 74 71 72 74 77 78 78 78 78 78 78
79 77 77 77 79 80 80 79 80 80 80 80 80 80 80 79 79 79 79 79 78 79 78 78 78 79 80 79 79 77 76 75 71 72 74 73 76 77 77 77 77 77 77
76 77 74 74 76 75 75 79 79 79 78 79 79 79 78 78 78 78 78 78 78 78 78 79 78 79 79 79 78 77 76 74 71 75 76 77 78 78 77 76 76 76 76
72 72 74 73 73 72 72 74 78 79 78 77 76 77 75 71 73 73 75 77 78 78 78 78 78 78 77 78 77 75 74 71 71 74 75 76 77 78 77 77 77 76 76
69 71 72 74 73 72 75 71 71 71 70 70 70 68 67 66 67 74 74 76 77 77 77 77 78 77 75 73 75 74 71 69 72 74 75 76 77 77 77 76 76 76 76
70 70 72 73 72 72 71 68 68 68 68 68 68 67 67 66 66 66 67 69 69 73 72 73 72 70 69 75 73 72 70 69 73 74 75 76 76 77 76 76 75 75 75
69 69 72 72 72 71 69 68 68 68 68 68 67 66 66 64 64 64 65 65 66 67 67 66 67 70 70 76 72 70 68 68 68 74 73 75 76 76 76 76 75 75 75
68 71 70 71 70 71 69 68 67 68 68 68 67 66 66 64 62 64 64 64 65 66 66 65 66 67 73 75 72 69 68 64 64 67 73 74 75 75 76 76 75 75 74
69 69 70 70 70 70 69 67 67 68 67 67 66 65 65 64 64 64 64 64 65 67 67 68 68 68 67 75 71 69 68 66 63 63 71 70 74 75 75 75 75 75 74
69 71 70 70 69 68 67 67 66 67 66 66 65 65 66 66 64 64 63 63 64 66 69 68 67 66 69 73 69 68 67 65 63 62 63 63 66 72 74 74 74 74 74
66 68 69 74 69 68 67 66 67 67 65 66 66 65 66 65 64 64 65 63 66 65 65 70 67 65 67 68 68 68 67 67 64 63 64 63 62 64 70 73 74 74 73
65 65 67 67 68 67 66 66 67 68 67 66 66 66 65 65 64 64 66 65 67 65 62 69 64 66 65 66 67 66 67 66 65 67 62 63 63 62 62 71 72 72 73
62 63 65 66 66 68 64 64 65 67 67 67 66 65 65 65 65 64 65 66 66 64 64 66 66 64 63 65 69 65 67 64 63 64 61 65 62 62 61 62 61 66 72
61 61 63 64 65 63 61 62 62 65 66 66 65 67 65 65 66 65 65 65 65 62 68 68 64 64 62 64 60 58 58 60 61 63 63 60 60 61 60 60 59 60 64
58 59 61 63 63 63 61 62 62 64 65 64 64 65 65 65 67 66 66 65 65 69 68 67 66 62 59 61 58 55 54 56 59 60 60 63 59 60 61 61 59 58 58
60 59 61 64 62 62 63 62 63 62 62 61 61 61 63 65 65 66 67 65 66 71 69 68 66 66 59 58 64 55 51 50 54 57 57 59 59 57 57 59 59 59 57
60 62 63 65 62 63 63 62 61 61 60 59 60 62 61 62 65 67 68 66 67 70 68 68 67 65 63 62 58 63 58 57 52 51 54 55 56 58 56 56 56 57 56
61 61 61 62 63 63 62 62 60 58 57 58 59 60 59 59 62 63 66 65 63 64 69 70 66 67 65 61 58 58 56 56 55 52 50 51 53 52 52 52 52 52 53
60 60 60 60 60 61 61 61 59 57 58 58 59 59 58 57 57 59 62 63 64 62 65 67 67 67 66 63 61 60 57 55 54 54 49 48 49 49 50 49 50 50 51

GFSSE_sfc_temp_150.txt.gz
Temp
73 76 81 82 82 82 82 83 83 82 82 81 81 81 81 81 81 81 81 81 80 81 81 82 82 82 82 82 81 81 81 80 80 80 79 79 80 80 80 80 80 79 80
76 79 81 82 82 82 83 83 82 82 81 81 81 81 81 81 81 81 81 81 80 81 82 82 82 82 82 82 81 81 80 80 80 79 78 78 78 80 80 79 80 80 81
77 79 80 81 82 82 82 82 81 81 81 81 80 81 81 81 80 80 81 81 81 81 81 81 81 81 82 81 80 80 80 79 79 78 78 75 77 80 80 79 79 80 81
78 79 79 81 81 82 82 81 81 80 80 81 80 81 81 80 81 81 81 81 81 80 81 80 81 81 81 80 80 79 79 79 78 77 75 76 78 80 80 80 80 80 80
78 79 79 81 81 81 81 81 80 80 81 81 81 80 80 80 81 81 80 80 80 80 80 80 80 80 80 79 79 79 78 78 76 74 73 75 75 78 79 79 79 79 79
76 77 79 81 81 81 81 81 81 80 80 80 81 80 80 80 80 80 80 80 80 80 79 79 80 79 79 79 78 78 77 76 74 72 72 74 75 79 78 79 78 78 78
75 77 79 81 81 81 81 81 80 80 80 80 80 80 80 80 80 79 80 79 79 79 79 80 80 80 79 78 78 77 77 75 71 73 74 74 75 78 79 79 78 78 78
76 78 79 80 80 80 81 81 80 80 80 80 80 80 80 80 79 80 79 79 79 79 79 79 80 79 79 78 78 77 76 75 72 70 70 73 77 78 78 78 78 78 78
77 76 75 76 78 79 79 80 80 79 79 80 80 80 80 79 79 79 79 79 79 79 79 78 79 79 78 78 77 77 76 74 67 69 74 73 77 77 78 77 77 78 78
73 74 74 73 75 73 74 78 78 78 78 79 79 79 78 77 78 78 78 78 78 78 78 78 78 78 78 77 77 77 75 74 69 73 75 75 77 78 77 77 77 77 77
72 72 73 73 73 72 72 74 78 79 78 77 76 76 74 69 70 73 75 77 78 78 78 78 78 77 77 76 76 75 73 68 71 74 75 76 77 78 77 76 76 76 76
66 70 72 72 72 72 74 71 71 72 71 69 68 67 66 67 68 70 72 75 77 77 77 78 77 76 74 71 72 72 69 67 70 70 74 76 77 77 77 76 76 76 76
68 68 71 71 71 70 69 67 67 67 68 68 67 66 66 66 67 67 65 65 66 73 69 73 72 72 70 70 68 69 67 65 72 74 74 75 76 76 76 76 75 75 75
68 69 70 70 70 70 69 67 68 67 67 68 67 67 66 64 64 64 64 63 65 65 66 66 66 68 69 70 68 66 64 65 66 73 74 75 76 76 76 76 75 75 75
67 68 69 69 68 68 67 67 67 66 67 67 66 66 64 63 63 64 64 64 63 65 64 65 65 66 69 69 68 66 61 61 64 72 71 74 75 75 76 76 75 75 74
68 68 68 68 68 68 66 68 67 68 67 67 67 66 65 64 63 62 64 64 64 65 65 63 64 69 69 68 67 66 63 62 62 69 70 71 74 75 75 75 75 75 74
61 67 66 67 68 67 67 67 67 66 67 67 66 65 66 66 64 63 64 64 64 66 64 66 67 68 68 68 64 63 65 61 61 62 63 66 70 72 74 74 75 74 74
60 63 66 71 67 66 65 66 67 67 66 66 66 65 65 64 63 63 63 64 65 64 63 63 66 69 67 65 64 64 64 62 60 61 62 62 61 64 70 73 74 74 74
60 61 62 65 66 65 64 64 65 66 65 66 65 64 63 63 64 63 64 63 63 62 62 61 65 68 66 65 64 62 63 61 61 64 59 60 61 61 62 71 72 72 73
60 60 61 62 64 64 63 63 62 65 64 65 65 64 64 63 63 63 64 65 63 62 61 61 64 65 66 65 66 62 59 59 59 59 58 62 60 61 61 62 62 66 72
59 59 59 60 62 61 59 60 60 62 63 65 65 65 64 64 63 63 63 65 63 62 61 61 64 65 62 66 59 56 56 56 57 58 59 58 59 59 59 59 59 59 64
57 58 59 60 61 61 59 60 61 62 63 62 64 64 64 63 63 63 63 65 63 62 61 61 64 61 62 64 61 55 52 57 56 57 57 60 58 58 59 59 58 58 58
57 58 59 60 61 60 60 60 60 61 62 61 61 61 63 64 64 64 64 64 64 63 61 61 64 66 62 56 65 56 51 51 52 54 54 56 56 56 56 57 57 57 56
58 61 60 60 61 60 61 60 61 60 59 59 59 62 60 62 64 65 65 65 65 66 65 61 68 67 66 62 58 61 58 57 52 49 53 54 54 55 53 55 55 56 54
61 60 60 59 59 60 60 60 58 57 56 57 59 60 59 58 62 65 66 65 65 68 70 70 68 67 68 64 61 57 57 56 55 53 48 49 51 50 49 50 51 52 53
59 60 60 58 58 60 60 59 57 57 56 57 58 59 58 58 58 61 64 64 64 63 67 69 68 67 67 64 59 59 57 56 55 54 50 48 48 47 47 47 48 49 50